GEFSMW_con_prob3kmehi_090.txt.gz
EHI
19 21 22 22 22 24 25 23 22 27 33 30 23 18 12 6 2 1 0 0 0 0 0 0 0 0 0 0 0 0 0 0 0 0 0 0 0 0 0 0 0 0 0
20 23 24 23 23 21 20 19 18 20 23 25 23 19 13 6 2 2 1 0 0 0 0 0 0 0 0 0 0 0 0 0 0 0 0 0 0 0 0 0 0 0 0
18 22 23 22 20 17 15 13 12 13 15 17 17 14 9 4 2 3 2 1 0 0 0 0 0 0 0 0 0 0 0 0 0 0 0 0 0 0 0 0 0 0 0
11 16 18 15 14 13 11 10 10 11 12 12 10 6 4 2 2 3 3 1 0 0 0 0 0 0 0 0 0 0 0 0 0 0 0 0 0 0 0 0 0 0 0
6 9 11 10 10 9 7 8 9 10 11 9 5 3 2 1 1 2 3 2 0 0 0 0 0 0 0 0 0 0 0 0 0 0 0 0 0 0 0 0 0 0 0
6 7 8 9 9 8 6 6 8 9 8 5 2 1 1 1 1 1 2 1 0 0 0 0 0 0 0 0 0 0 0 0 0 0 0 0 0 0 0 0 0 0 0
9 8 7 8 9 8 8 8 7 6 5 2 0 0 0 0 0 1 1 1 0 0 0 0 0 0 0 0 0 0 0 0 0 0 0 0 0 0 0 0 0 0 0
11 9 8 7 7 7 8 8 6 5 3 1 0 0 0 0 1 1 1 0 0 0 1 1 1 1 0 0 0 0 0 0 0 0 0 0 0 0 0 0 0 0 0
11 11 9 7 5 5 6 5 4 3 2 1 0 1 0 0 1 1 1 0 0 0 1 2 2 2 1 1 0 0 0 0 0 0 0 0 0 0 0 0 0 0 0
11 11 10 8 6 5 5 4 3 4 3 2 1 1 1 2 3 2 2 1 1 0 1 1 2 2 2 1 0 0 0 0 0 0 0 0 0 0 0 0 0 0 0
12 11 10 9 7 5 4 3 4 5 5 4 3 2 2 4 5 5 3 3 2 0 0 0 1 1 2 1 1 0 0 0 0 0 0 0 0 1 1 1 0 0 0
13 11 10 10 9 6 4 3 4 6 8 8 6 5 5 6 6 6 5 4 3 2 1 1 1 2 3 3 2 0 0 0 1 1 1 1 1 2 3 3 1 0 0
16 13 10 9 9 7 4 3 4 7 9 10 10 9 8 8 7 7 6 6 6 6 4 4 3 3 4 3 1 1 1 2 3 3 2 2 2 3 4 5 3 2 2
24 20 14 11 9 7 6 4 5 8 10 13 15 14 13 12 10 10 11 12 11 10 9 7 4 2 1 2 2 2 3 4 3 3 3 2 1 1 3 4 4 6 7
35 31 24 19 15 13 11 8 7 10 14 16 17 17 16 16 15 14 17 19 17 14 12 8 4 2 0 1 2 3 3 3 3 3 3 2 0 0 1 1 3 6 8
41 38 32 27 24 23 20 17 15 17 20 20 17 16 17 18 17 15 17 19 17 13 9 6 3 2 0 0 1 1 1 2 3 4 2 1 0 0 0 0 1 3 4
41 38 34 31 30 29 28 28 27 27 26 22 16 14 15 15 13 11 10 10 9 7 4 2 1 1 0 0 0 0 0 1 2 2 1 0 0 0 0 0 0 0 0
39 38 34 32 31 32 32 33 33 30 26 20 13 10 9 8 7 5 4 4 3 1 0 0 0 0 0 0 0 0 0 0 0 0 0 0 0 0 0 0 0 0 0
36 35 33 30 29 30 31 30 28 23 16 10 6 4 3 3 2 1 1 1 1 0 0 0 0 0 0 0 0 0 0 0 0 0 0 0 0 0 0 0 0 0 0
28 26 24 24 22 23 23 21 17 11 5 2 1 1 1 1 0 0 0 1 1 0 0 0 0 0 0 0 0 0 0 0 0 0 0 0 0 0 0 0 0 0 0
18 17 16 15 15 14 12 10 6 3 1 0 0 0 0 0 0 0 0 0 0 0 0 0 0 0 0 0 0 0 0 0 0 0 0 0 0 0 0 0 0 0 0
12 10 10 9 9 7 6 4 2 0 0 0 0 0 0 0 0 0 0 0 0 0 0 0 0 0 0 0 0 0 0 0 0 0 0 0 0 0 0 0 0 0 0
6 6 5 4 3 3 3 2 1 0 0 0 0 0 0 0 0 0 0 0 0 0 0 0 0 0 0 0 0 0 0 0 0 0 0 0 0 0 0 0 0 0 0
2 2 1 1 1 1 1 1 0 0 0 0 0 0 0 0 0 0 0 0 0 0 0 0 0 0 0 0 0 0 0 0 0 0 0 0 0 0 0 0 0 0 0
0 0 0 0 0 0 0 0 0 0 0 0 0 0 0 0 0 0 0 0 0 0 0 0 0 0 0 0 0 0 0 0 0 0 0 0 0 0 0 0 0 0 0
0 0 0 0 0 0 0 0 0 0 0 0 0 0 0 0 0 0 0 0 0 0 0 0 0 0 0 0 0 0 0 0 0 0 0 0 0 0 0 0 0 0 0

GEFSMW_con_prob3kmehi_096.txt.gz
EHI
64 66 62 52 47 48 50 50 51 53 52 52 54 52 46 39 34 31 24 16 11 8 5 4 6 5 4 4 3 1 0 0 0 0 0 0 0 0 1 1 1 1 2
64 65 58 47 43 46 49 48 48 48 48 50 53 51 47 39 31 27 21 14 11 9 5 4 5 5 5 4 3 2 1 0 0 0 0 0 0 0 1 2 1 2 4
63 62 54 43 41 44 47 46 43 41 42 45 44 42 39 32 26 22 16 11 9 7 4 4 6 6 5 4 3 2 1 0 0 0 0 0 0 0 0 1 2 4 6
58 57 50 43 40 41 43 43 41 38 39 39 34 31 27 23 19 17 13 9 5 3 4 5 7 6 6 5 3 2 2 1 0 0 0 0 0 0 0 0 1 2 4
49 49 46 40 35 33 35 39 40 39 38 35 31 27 23 21 18 15 12 7 3 1 2 6 7 6 5 3 2 3 3 2 1 1 0 0 0 0 0 0 0 0 1
41 43 41 35 30 27 28 33 40 41 36 33 29 27 27 25 21 16 10 5 2 1 2 5 6 5 4 3 2 4 3 2 1 2 2 1 0 0 0 0 0 1 2
40 40 38 34 29 27 26 31 38 38 33 28 25 25 26 24 19 13 7 3 1 1 3 5 6 5 5 3 2 3 3 1 1 2 2 1 1 1 1 1 0 1 2
43 40 36 35 32 28 29 31 34 34 30 24 20 20 20 18 16 12 7 4 3 4 6 8 8 7 6 3 1 1 1 2 2 1 1 1 1 2 3 3 2 1 1
40 39 36 34 32 31 33 33 33 32 28 23 19 16 14 14 15 14 11 9 7 7 8 7 6 6 4 2 1 0 0 1 2 1 1 2 3 3 4 5 4 2 1
36 37 38 35 33 34 35 34 33 30 25 21 18 14 14 15 15 14 13 13 12 11 8 6 5 4 2 1 0 0 0 0 1 2 3 3 3 4 4 4 4 3 2
39 41 41 38 34 33 34 31 27 25 22 18 16 15 17 18 16 14 14 16 17 16 12 9 8 6 3 1 1 0 0 1 3 4 3 3 3 4 3 3 3 3 2
47 49 48 42 36 33 31 26 20 18 18 17 17 19 23 23 20 18 19 21 22 21 17 13 10 7 4 3 2 2 2 3 4 4 3 3 2 3 3 2 1 1 1
59 62 60 52 44 38 32 26 20 16 16 18 19 22 26 25 23 22 22 23 24 21 17 14 11 7 4 4 4 4 4 4 3 1 1 2 1 1 2 2 1 0 0
70 73 74 67 58 49 40 32 24 20 20 22 23 24 26 27 26 26 25 24 21 17 14 12 10 8 5 4 3 3 3 2 1 0 0 0 0 0 1 1 1 0 0
74 78 79 77 71 61 49 40 33 31 32 32 30 30 31 32 31 30 29 26 20 15 11 9 8 6 4 2 1 2 1 0 0 0 0 0 0 0 0 0 0 0 0
73 77 79 77 76 68 57 48 45 46 47 43 38 37 36 34 32 31 28 24 20 15 10 8 5 3 1 0 0 1 1 0 0 0 0 0 0 0 0 0 0 0 0
73 78 80 78 76 72 66 61 59 57 55 49 45 41 36 32 31 28 24 20 18 14 10 6 3 1 0 0 0 0 0 0 0 0 0 0 0 0 0 0 0 0 0
74 77 79 77 75 72 72 69 65 61 55 51 48 42 35 30 27 23 19 16 13 10 7 5 3 1 0 0 0 0 0 0 0 0 0 0 0 0 0 0 0 0 0
71 71 71 70 69 67 67 65 61 57 53 48 44 38 30 23 18 14 12 9 7 5 4 4 3 1 0 0 0 0 0 0 0 0 0 0 0 0 0 0 0 0 0
60 60 59 58 58 58 58 56 51 47 44 39 32 24 19 13 8 5 4 3 2 2 2 2 2 1 0 0 0 0 0 0 0 0 0 0 0 0 0 0 0 0 0
45 47 47 45 45 46 46 43 38 31 27 23 16 10 6 4 2 1 0 0 0 1 1 1 1 0 0 0 0 0 0 0 0 0 0 0 0 0 0 0 0 0 0
29 33 35 34 34 34 31 26 20 15 11 9 6 2 1 0 0 0 0 0 0 0 0 0 0 0 0 0 0 0 0 0 0 0 0 0 0 0 0 0 0 0 0
18 21 24 25 25 23 20 14 9 6 3 2 1 0 0 0 0 0 0 0 0 0 0 0 0 0 0 0 0 0 0 0 0 0 0 0 0 0 0 0 0 0 0
11 12 15 16 15 14 11 8 4 2 1 0 0 0 0 0 0 0 0 0 0 0 0 0 0 0 0 0 0 0 0 0 0 0 0 0 0 0 0 0 0 0 0
6 7 7 8 7 6 5 3 2 0 0 0 0 0 0 0 0 0 0 0 0 0 0 0 0 0 0 0 0 0 0 0 0 0 0 0 0 0 0 0 0 0 0
4 4 4 4 4 3 2 1 0 0 0 0 0 0 0 0 0 0 0 0 0 0 0 0 0 0 0 0 0 0 0 0 0 0 0 0 0 0 0 0 0 0 0

GEFSMW_con_prob3kmehi_102.txt.gz
EHI
59 55 51 45 40 38 37 35 29 20 16 17 17 14 9 5 4 3 3 3 2 1 0 0 0 0 0 0 0 0 0 0 0 0 0 0 0 0 0 0 0 0 0
58 53 47 42 39 36 34 32 28 21 17 16 15 13 8 4 3 3 3 3 2 1 0 0 0 0 0 0 0 0 0 0 0 0 0 0 0 0 0 0 0 0 0
55 50 44 40 38 34 31 28 25 20 16 12 11 10 8 4 3 3 3 2 1 0 0 0 0 0 0 0 0 0 0 0 0 0 0 0 0 0 0 0 0 0 0
50 46 42 40 37 33 28 24 21 17 12 9 8 7 6 4 3 3 1 1 0 0 0 0 0 0 0 0 0 0 0 0 0 0 0 0 0 0 0 0 0 0 0
45 43 41 40 37 31 25 22 19 15 9 6 6 5 4 3 3 2 1 0 0 0 1 0 0 0 0 0 0 0 0 0 0 0 0 0 0 0 0 0 0 0 0
37 38 38 36 33 28 24 21 19 14 9 5 4 4 3 3 3 1 0 0 0 0 0 0 0 0 0 0 0 0 0 0 0 0 0 0 0 0 0 0 0 0 0
29 31 31 29 27 25 22 21 18 15 10 6 3 3 2 2 2 1 0 0 0 0 0 0 0 0 0 0 0 0 0 0 0 0 0 0 0 0 0 0 0 0 0
25 25 23 21 20 20 20 19 17 13 10 7 4 3 1 1 1 0 0 0 0 0 0 0 0 0 0 0 0 0 0 0 0 0 0 0 0 0 0 0 0 0 0
22 21 18 15 15 16 17 16 14 11 9 7 6 4 2 0 0 0 0 0 0 0 0 0 0 0 0 0 0 0 0 0 0 0 0 0 0 0 0 0 0 0 0
21 19 15 12 12 14 14 14 12 9 7 7 7 6 3 1 0 0 0 0 0 0 0 0 0 0 0 0 0 0 0 0 0 0 0 0 0 0 0 0 0 0 0
21 18 14 12 12 13 12 12 11 9 7 7 7 6 4 2 1 0 0 0 0 0 0 0 0 0 0 0 0 0 0 0 0 0 0 0 0 0 0 0 0 0 0
19 17 14 14 14 13 12 11 11 10 8 7 7 6 4 3 2 2 1 0 0 0 0 0 0 0 0 0 0 0 0 0 0 0 0 0 0 0 0 0 0 0 0
16 15 14 15 15 14 13 12 11 10 9 8 7 6 4 3 4 4 2 1 0 0 0 0 0 0 0 0 0 0 0 0 0 0 0 0 0 0 0 0 0 0 0
14 15 15 15 14 12 12 13 12 10 9 9 8 7 6 4 4 5 3 1 0 0 0 0 0 0 0 0 0 0 0 0 0 0 0 0 0 0 0 0 0 0 0
13 14 16 15 12 10 10 12 12 11 10 9 9 9 7 6 5 5 4 2 1 1 0 0 0 0 0 0 0 0 0 0 0 0 0 0 0 0 0 0 0 0 0
17 18 18 16 13 11 10 11 12 12 10 10 9 9 8 7 7 7 5 3 3 2 1 0 0 0 0 0 0 0 0 0 0 0 0 0 0 0 0 0 0 0 0
24 24 20 16 14 12 11 11 12 12 10 9 9 8 8 8 7 7 4 3 3 3 1 0 0 0 0 0 0 0 0 0 0 0 0 0 0 0 0 0 0 0 0
22 21 19 16 13 11 10 10 10 10 9 8 7 8 8 7 7 5 3 2 3 3 2 1 0 0 0 0 0 0 0 0 0 0 0 0 0 0 0 0 0 0 0
13 14 16 15 13 11 10 9 8 8 8 7 7 7 7 7 6 3 1 1 2 3 2 1 0 0 0 0 0 0 0 0 0 0 0 0 0 0 0 0 0 0 0
8 10 12 12 10 9 8 8 8 8 9 9 8 6 6 7 5 2 0 0 1 2 2 1 0 0 0 0 0 0 0 0 0 0 0 0 0 0 0 0 0 0 0
6 7 9 8 6 6 6 8 9 8 9 9 8 7 6 5 3 1 0 0 0 1 1 0 0 0 0 0 0 0 0 0 0 0 0 0 0 0 0 0 0 0 0
4 4 5 4 4 6 8 8 8 7 7 7 7 6 5 3 1 0 0 0 0 0 0 0 0 0 0 0 0 0 0 0 0 0 0 0 0 0 0 0 0 0 0
2 3 4 4 4 6 8 8 6 5 5 6 5 4 3 1 0 0 0 0 0 0 0 0 0 0 0 0 0 0 0 0 0 0 0 0 0 0 0 0 0 0 0
1 3 4 4 3 4 5 5 4 4 4 4 3 2 1 0 0 0 0 0 0 0 0 0 0 0 0 0 0 0 0 0 0 0 0 0 0 0 0 0 0 0 0
1 2 3 3 2 2 2 1 1 2 2 2 1 1 0 0 0 0 0 0 0 0 0 0 0 0 0 0 0 0 0 0 0 0 0 0 0 0 0 0 0 0 0
1 2 2 1 1 1 0 0 0 1 1 1 0 0 0 0 0 0 0 0 0 0 0 0 0 0 0 0 0 0 0 0 0 0 0 0 0 0 0 0 0 0 0

GEFSMW_con_prob3kmehi_108.txt.gz
EHI
22 22 23 21 17 15 15 15 14 12 11 7 4 2 1 0 0 0 0 0 0 1 1 0 0 0 0 0 0 0 0 0 0 0 0 0 0 0 0 0 0 0 0
19 20 22 21 17 14 13 13 12 10 8 6 3 2 1 1 0 0 0 1 1 1 1 0 0 0 0 0 0 0 0 0 0 0 0 0 0 0 0 0 0 0 0
16 18 19 19 17 14 12 11 11 9 7 4 3 3 3 3 1 0 0 1 1 1 1 0 0 0 0 0 0 0 0 0 0 0 0 0 0 0 0 0 0 0 0
13 15 16 16 16 16 14 13 12 10 8 5 4 5 5 4 3 1 0 1 1 0 0 0 0 0 0 0 0 0 0 0 0 0 0 0 0 0 0 0 0 0 0
9 11 12 13 15 17 17 16 13 12 11 9 6 4 4 4 4 2 0 0 0 0 0 0 0 0 0 0 0 0 0 0 0 0 0 0 0 0 0 0 0 0 0
6 7 9 11 13 16 18 17 15 14 14 11 6 3 3 3 3 2 1 0 0 0 0 0 0 0 0 0 0 0 0 0 0 0 0 0 0 0 0 0 0 0 0
6 6 7 8 9 12 15 15 15 14 13 9 5 2 2 2 2 2 1 0 0 0 0 0 0 0 0 0 0 0 0 0 0 0 0 0 0 0 0 0 0 0 0
7 8 8 8 8 9 11 13 13 13 9 6 3 1 1 1 1 1 1 0 0 0 0 0 0 0 0 0 0 0 0 0 0 0 0 0 0 0 0 0 0 0 0
6 7 8 8 8 8 8 9 10 10 7 5 3 1 0 0 0 0 0 0 0 0 0 0 0 0 0 0 0 0 0 0 0 0 0 0 0 0 0 0 0 0 0
4 5 6 6 6 6 6 6 7 8 7 4 2 1 0 0 0 0 0 0 0 0 0 0 0 0 0 0 0 0 0 0 0 0 0 0 0 0 0 0 0 0 0
4 5 5 5 5 4 4 4 5 6 5 3 1 1 0 0 0 0 0 0 0 0 0 0 0 0 0 0 0 0 0 0 0 0 0 0 0 0 0 0 0 0 0
3 4 4 4 3 2 2 3 4 4 3 1 0 0 0 0 0 0 0 0 0 0 0 0 0 0 0 0 0 0 0 0 0 0 0 0 0 0 0 0 0 0 0
1 2 3 4 3 1 1 2 3 3 3 1 0 0 0 0 0 0 0 0 0 0 0 0 0 0 0 0 0 0 0 0 0 0 0 0 0 0 0 0 0 0 0
0 0 2 3 3 2 2 3 4 4 4 3 2 1 1 0 0 0 0 0 0 0 0 0 0 0 0 0 0 0 0 0 0 0 0 0 0 0 0 0 0 0 0
0 0 1 1 1 2 3 5 5 5 6 6 4 3 3 2 1 0 0 0 0 0 0 0 0 0 0 0 0 0 0 0 0 0 0 0 0 0 0 0 0 0 0
0 0 1 1 1 1 3 5 6 7 7 7 5 5 4 3 2 1 0 0 0 0 0 0 0 0 0 0 0 0 0 0 0 0 0 0 0 0 0 0 0 0 0
0 0 1 1 1 1 2 3 5 7 7 6 5 5 4 4 4 2 1 0 0 0 0 0 0 0 0 0 0 0 0 0 0 0 0 0 0 0 0 0 0 0 0
0 0 0 0 0 0 0 2 4 5 5 4 3 4 4 4 4 3 1 0 0 0 0 0 0 0 0 0 0 0 0 0 0 0 0 0 0 0 0 0 0 0 0
0 0 0 0 0 0 0 0 1 3 3 2 1 2 3 3 4 3 2 0 0 0 0 0 0 0 0 0 0 0 0 0 0 0 0 0 0 0 0 0 0 0 0
0 0 0 0 0 0 0 0 0 1 2 2 1 2 3 4 4 3 1 0 0 0 0 0 0 0 1 0 0 0 0 0 0 0 0 0 0 0 0 0 0 0 0
0 0 0 0 0 0 0 0 0 0 1 2 2 3 4 4 3 2 1 0 0 0 0 0 0 0 0 0 0 0 0 0 0 0 0 0 0 0 0 0 0 0 0
0 0 0 0 0 0 0 0 0 0 0 1 2 3 4 4 2 1 1 0 0 0 0 0 0 0 0 0 0 0 0 0 0 0 0 0 0 0 0 0 0 0 0
0 0 0 0 0 0 0 0 0 0 0 0 1 3 3 2 1 1 2 1 0 0 0 0 0 0 0 0 0 0 0 0 0 0 0 0 0 0 0 0 0 0 0
0 0 0 0 0 0 0 0 0 0 0 0 1 1 1 1 0 1 1 1 0 0 0 0 0 0 0 0 0 0 0 0 0 0 0 0 0 0 0 0 0 0 0
0 0 0 0 0 0 0 0 0 0 0 0 0 0 0 0 0 0 0 0 0 0 0 0 0 0 0 0 0 0 0 0 0 0 0 0 0 0 0 0 0 0 0
0 0 0 0 0 0 0 0 0 0 0 0 0 0 0 0 0 0 0 0 0 0 0 0 0 0 0 0 0 0 0 0 0 0 0 0 0 0 0 0 0 0 0

GEFSMW_con_prob3kmehi_114.txt.gz
EHI
38 44 46 43 40 39 38 35 32 29 26 22 16 11 8 6 5 3 2 1 1 2 2 2 1 2 3 3 1 0 0 0 0 0 0 0 0 0 0 0 0 0 0
43 47 46 40 35 35 36 34 31 28 24 19 15 12 9 7 5 4 3 1 1 1 1 1 1 2 3 2 1 0 0 0 0 0 0 0 0 0 0 0 0 0 0
44 48 46 37 31 31 33 33 30 26 21 18 14 11 9 8 6 6 5 2 1 1 1 1 2 2 2 1 1 1 0 0 0 0 0 0 0 0 0 0 0 0 0
36 41 43 39 34 32 32 32 29 24 21 18 14 10 8 7 7 6 5 2 1 0 0 1 1 2 2 1 1 0 0 0 0 0 0 0 0 0 0 0 0 0 0
27 29 33 34 33 32 31 29 26 22 20 18 14 10 8 8 7 6 5 3 2 1 1 1 2 3 4 2 0 0 0 0 0 0 0 0 0 0 0 0 0 0 0
20 21 23 25 27 29 29 26 23 20 19 18 15 11 10 9 7 5 4 5 4 3 2 3 4 6 6 3 2 1 0 0 0 1 0 0 0 0 0 0 0 0 0
17 19 20 20 23 26 26 24 23 21 20 19 17 14 10 8 6 3 3 5 6 4 3 3 4 5 5 4 4 3 1 0 0 0 0 0 0 0 0 0 0 0 0
20 20 20 21 24 25 24 22 22 21 21 20 19 16 12 7 4 2 3 5 6 5 3 2 3 3 2 3 3 3 1 0 0 0 0 0 0 0 0 0 0 0 0
23 23 22 22 23 23 20 19 19 21 22 21 21 19 14 9 4 2 2 4 6 5 2 2 2 1 2 3 3 2 2 1 0 0 1 1 0 0 0 0 0 0 0
22 24 25 23 21 19 16 16 17 18 18 19 19 18 16 12 7 2 1 2 3 3 2 2 2 1 2 2 2 2 2 1 0 1 1 0 0 0 0 0 0 0 0
21 24 24 21 17 14 13 14 14 13 13 15 15 15 15 12 8 3 1 0 1 1 1 1 1 0 1 1 1 1 1 0 0 0 0 0 0 0 1 0 0 0 0
23 24 21 17 13 11 11 11 10 9 10 12 14 14 13 10 7 5 3 1 1 1 1 1 1 1 1 1 0 0 0 0 0 0 0 0 0 0 0 0 0 0 0
28 25 21 16 13 12 10 8 6 5 7 10 12 13 11 9 7 7 6 5 4 2 1 2 2 2 2 2 1 0 0 0 0 0 0 0 0 0 0 0 0 0 0
28 26 23 19 15 13 9 5 3 3 3 5 8 10 9 8 7 8 9 10 7 4 2 3 3 3 3 3 2 1 0 1 1 1 0 0 0 0 0 0 0 0 0
27 27 24 20 17 14 10 6 4 4 3 4 7 9 10 8 7 8 10 11 9 5 3 2 3 3 3 3 2 2 2 3 3 2 1 0 0 0 0 0 0 0 0
28 28 25 21 17 15 13 10 8 7 8 8 9 11 12 11 10 11 11 11 11 8 6 5 4 3 2 1 1 2 4 5 5 3 2 1 0 0 0 0 0 0 0
29 30 27 21 17 15 13 13 12 10 10 12 12 12 13 14 14 14 13 14 14 13 12 10 7 4 2 0 0 1 3 4 4 3 3 1 1 0 0 0 0 0 0
26 28 26 21 15 12 11 11 11 10 9 12 14 14 15 16 16 16 15 16 17 16 15 13 11 7 3 0 0 0 1 3 4 3 3 3 2 1 0 0 0 0 0
23 25 24 20 14 10 9 9 9 9 9 11 15 16 16 16 16 15 15 16 15 14 13 11 10 8 4 1 0 0 2 4 4 4 3 3 2 1 0 0 0 0 0
22 23 22 18 13 10 10 9 9 9 9 10 12 14 15 14 13 13 13 12 11 10 9 8 8 6 3 1 0 1 3 5 4 3 3 2 1 0 0 0 0 0 0
22 21 19 16 11 9 11 11 11 9 7 7 8 10 11 11 10 10 9 9 8 7 6 5 5 4 2 1 0 0 2 4 4 3 2 1 0 0 0 0 0 0 0
17 17 16 14 11 10 11 11 11 8 5 4 5 7 8 7 7 7 8 8 8 7 5 3 2 1 0 0 0 0 0 1 2 2 1 1 0 0 0 0 0 0 0
11 10 10 10 9 8 8 9 9 8 5 3 3 5 6 5 5 6 8 8 7 6 4 2 1 0 0 0 0 0 0 0 1 1 0 0 0 0 0 0 0 0 0
4 3 3 3 3 4 4 6 7 7 5 2 3 5 5 5 6 6 6 5 5 3 2 1 0 0 0 0 0 0 0 0 0 0 0 0 0 0 0 0 0 0 0
1 0 1 1 0 1 2 4 7 7 5 2 2 3 4 4 4 3 2 2 1 1 1 0 0 0 0 0 0 0 0 0 0 0 0 0 0 0 0 0 0 0 0
0 1 2 2 1 0 1 4 7 7 5 2 1 1 1 2 2 1 0 0 0 0 0 0 0 0 0 0 0 0 0 0 0 0 0 0 0 0 0 0 0 0 0

GEFSMW_con_prob3kmehi_120.txt.gz
EHI
77 74 72 72 71 70 69 67 63 56 50 43 37 33 33 37 40 41 42 37 29 21 15 16 20 18 14 9 7 7 6 4 2 0 0 1 3 6 7 5 4 5 6
79 76 73 73 72 71 69 65 60 54 48 41 35 31 31 34 36 39 41 36 28 21 16 16 17 17 16 14 12 11 7 4 3 2 0 0 2 4 4 4 4 5 7
78 75 73 73 73 71 67 61 57 51 44 37 31 27 27 28 31 38 41 36 29 24 21 20 18 17 18 18 16 13 9 6 5 4 2 1 1 1 1 1 3 6 9
73 72 71 70 69 67 63 58 54 49 41 35 30 26 24 23 26 34 39 35 30 27 27 26 24 21 20 19 16 13 11 9 7 6 4 3 1 0 0 0 1 5 8
69 68 66 65 62 60 57 55 52 47 41 34 29 26 25 24 24 29 33 30 25 23 26 29 28 24 21 19 16 13 10 8 7 6 6 4 2 1 0 0 0 2 5
68 66 62 58 55 52 52 51 49 44 37 31 27 27 30 31 28 26 25 21 17 16 19 25 28 25 23 21 18 13 8 6 6 6 6 5 4 3 1 0 0 1 2
67 64 59 53 50 48 48 49 45 40 33 28 28 30 34 35 29 22 17 15 13 13 18 23 26 26 24 21 17 12 8 6 6 6 7 7 7 6 3 1 1 0 1
63 63 58 51 48 47 48 47 43 38 33 31 33 35 36 33 27 20 16 14 12 13 19 26 28 26 23 19 15 10 8 8 6 6 9 11 9 7 5 3 2 1 0
58 59 57 50 44 46 48 45 41 38 35 35 37 37 35 31 28 25 20 17 14 13 17 25 28 25 22 20 15 9 8 8 6 5 10 12 10 7 5 4 3 1 1
54 55 54 47 41 43 45 44 40 37 35 35 35 33 32 32 32 31 27 23 19 17 18 22 22 20 19 18 14 9 8 8 6 5 7 10 10 9 8 5 4 3 2
54 57 57 48 40 38 41 40 37 34 32 32 31 29 30 32 32 32 31 29 26 23 22 20 17 14 13 12 10 8 7 7 5 4 5 6 8 11 10 8 5 4 3
60 63 62 51 41 38 37 35 31 28 28 29 30 30 31 32 31 30 31 31 29 25 22 19 15 11 9 9 9 6 5 5 4 5 6 6 7 9 10 8 6 4 3
65 66 63 55 47 43 40 34 29 26 27 29 32 33 33 33 33 31 30 29 27 24 21 17 14 12 10 10 9 6 4 4 5 7 9 9 8 8 7 6 5 4 3
67 67 64 60 56 52 46 39 32 28 28 31 33 36 37 36 36 34 31 28 25 23 20 17 15 14 11 9 9 8 6 6 7 8 10 9 7 6 6 5 4 3 2
69 70 68 65 61 55 49 43 36 32 32 32 31 32 35 35 34 32 28 25 23 21 19 17 16 15 10 7 8 9 9 9 9 8 8 6 5 4 4 4 3 2 2
70 70 69 67 62 56 52 47 40 35 34 30 25 24 28 28 26 24 22 20 19 18 17 16 15 13 9 6 6 8 11 13 13 9 6 4 3 3 3 2 1 1 1
70 69 66 64 61 56 53 50 43 37 33 29 22 18 20 20 19 18 18 18 18 16 15 15 15 13 10 5 3 5 10 15 15 11 5 3 3 3 3 2 1 0 0
71 66 60 59 59 54 50 47 42 36 32 29 25 19 17 16 17 18 19 20 19 17 16 16 15 15 11 4 1 3 8 12 13 10 6 4 3 3 3 3 2 1 0
68 63 55 53 55 51 46 43 38 33 30 31 29 24 19 16 16 18 20 20 20 18 17 15 15 15 11 4 0 2 6 9 9 7 6 4 3 3 3 3 3 2 1
62 58 51 47 48 47 45 41 35 30 29 31 31 26 21 18 16 16 17 19 19 17 14 13 13 13 10 4 0 1 4 7 6 6 5 3 2 2 2 2 3 2 1
49 47 44 42 42 43 41 39 34 30 30 31 28 23 19 16 13 12 13 16 17 14 12 11 11 10 7 2 0 1 2 3 3 4 4 3 1 0 0 1 2 2 1
36 36 37 37 38 37 35 33 32 29 27 26 24 20 16 13 11 10 11 13 13 12 10 9 8 6 3 1 0 0 1 1 1 1 1 1 0 0 0 0 1 1 0
28 30 32 33 33 32 29 27 27 25 20 18 18 17 14 11 8 8 9 9 9 8 8 7 6 3 1 0 0 0 0 0 0 0 0 0 0 0 0 0 0 0 0
24 25 27 28 28 26 24 22 22 20 16 14 14 14 13 10 7 5 5 5 4 4 5 6 4 2 0 0 0 0 0 0 0 0 0 0 0 0 0 0 0 0 0
18 19 21 21 21 21 20 19 19 18 16 14 12 12 11 9 6 3 2 1 1 1 3 3 2 0 0 0 0 0 0 0 0 0 0 0 0 0 0 0 0 0 0
14 15 16 16 16 17 16 17 18 17 15 13 11 11 10 9 6 2 0 0 0 0 1 1 0 0 0 0 0 0 0 0 0 0 0 0 0 0 0 0 0 0 0

GEFSMW_con_prob3kmehi_126.txt.gz
EHI
60 62 64 64 62 59 55 50 44 37 30 24 20 16 11 10 11 8 6 5 2 2 2 1 1 0 0 0 0 0 0 0 0 0 0 0 0 0 0 0 0 0 0
64 64 65 64 62 60 55 47 39 33 28 24 19 14 9 9 10 8 6 6 4 3 2 1 1 0 0 0 0 0 0 0 0 0 0 0 0 0 0 0 0 0 0
67 66 65 63 61 57 50 42 35 29 26 22 17 12 7 6 8 8 7 6 5 4 3 1 1 0 0 0 0 0 0 0 0 0 0 0 0 0 0 0 0 0 0
65 62 59 58 56 50 42 36 31 27 24 21 18 12 6 4 6 7 7 5 3 2 2 1 0 0 0 0 0 0 0 0 0 0 0 0 0 0 0 0 0 0 0
56 51 47 47 47 44 38 33 28 24 22 20 18 12 6 4 5 5 4 3 1 0 1 1 0 0 0 0 0 0 0 0 0 0 0 0 0 0 0 0 0 0 0
48 42 35 36 39 38 34 29 25 21 18 17 16 12 7 4 4 3 3 3 2 1 0 0 0 0 0 0 0 0 0 0 0 0 0 0 0 0 0 0 0 0 0
42 36 31 30 32 32 29 25 21 19 16 14 14 12 9 5 3 3 3 3 3 2 1 1 1 1 0 0 0 0 0 0 0 0 0 0 0 0 0 0 0 0 0
35 30 28 28 27 26 24 19 17 17 16 14 13 12 10 7 4 3 3 3 3 3 2 1 2 1 0 0 0 0 0 0 0 0 0 0 0 0 0 0 0 0 0
29 26 25 24 21 20 19 17 15 16 17 16 14 12 10 9 5 3 3 3 3 3 2 1 1 1 0 0 0 0 0 0 0 0 0 0 0 0 0 0 0 0 0
31 28 24 21 18 16 15 14 14 14 15 15 14 12 11 9 6 3 2 2 1 1 1 1 0 1 1 0 0 0 0 0 0 0 0 0 0 0 0 0 0 0 0
36 31 24 19 18 15 12 10 10 11 12 13 14 13 11 8 5 3 2 1 0 0 0 0 0 1 1 0 0 0 0 0 0 0 0 0 0 0 0 0 0 0 0
36 30 24 19 15 12 10 8 8 9 10 12 13 13 11 8 6 6 5 3 2 0 0 0 0 1 1 0 0 0 0 0 0 0 0 0 0 0 0 0 0 0 0
33 28 23 18 11 8 8 8 10 10 11 12 13 13 11 10 9 9 8 6 4 2 1 0 0 0 0 0 0 0 0 0 0 0 0 0 0 0 0 0 0 0 0
34 28 22 16 10 7 9 11 11 11 11 11 11 11 11 11 10 9 8 7 5 4 3 2 1 0 0 0 0 0 0 0 0 0 0 0 0 0 0 0 0 0 0
36 33 26 19 14 11 12 13 12 11 11 11 11 9 9 10 9 8 6 5 5 5 5 5 3 1 0 0 0 0 0 0 0 0 0 0 0 0 0 0 0 0 0
38 39 35 28 22 19 16 15 14 12 13 14 13 10 10 9 8 6 5 4 4 5 6 6 5 3 1 0 0 1 1 1 0 0 0 0 0 0 0 0 0 0 0
42 43 40 34 29 26 20 17 15 15 15 16 15 14 13 11 8 7 6 4 4 4 5 6 6 5 3 1 0 1 2 1 0 0 0 0 0 0 0 0 0 0 0
45 43 38 35 33 29 22 18 16 15 15 16 15 15 13 10 8 8 7 6 4 4 5 5 6 5 3 1 0 0 1 1 0 0 0 0 0 0 0 0 0 0 0
42 38 33 30 29 25 22 19 16 15 14 14 12 11 10 8 6 6 6 6 5 4 4 4 4 3 3 1 0 0 0 0 0 0 0 0 0 0 0 0 0 0 0
34 31 27 23 19 17 17 16 14 13 12 11 9 7 6 5 4 3 3 4 4 3 2 2 3 2 2 1 0 0 0 0 0 0 0 0 0 0 0 0 0 0 0
25 25 23 19 14 10 9 8 7 6 6 6 5 4 3 2 1 1 1 2 2 2 1 1 2 2 1 1 0 0 0 0 0 0 0 0 0 0 0 0 0 0 0
17 19 19 17 12 8 5 3 2 1 2 2 1 1 1 1 0 0 0 1 1 1 0 0 1 1 0 0 0 0 0 0 0 0 0 0 0 0 0 0 0 0 0
14 14 15 13 9 7 4 3 2 1 1 1 0 0 0 0 0 0 0 0 0 0 0 0 0 0 0 0 0 0 0 0 0 0 0 0 0 0 0 0 0 0 0
11 11 11 9 8 6 4 3 3 3 2 2 1 1 0 0 0 0 0 0 0 0 0 0 0 0 0 0 0 0 0 0 0 0 0 0 0 0 0 0 0 0 0
7 8 8 7 6 5 4 3 3 3 3 4 3 2 1 0 0 0 0 0 0 0 0 0 0 0 0 0 0 0 0 0 0 0 0 0 0 0 0 0 0 0 0
4 5 6 5 5 5 4 3 3 3 4 4 2 2 1 1 0 0 0 0 0 0 0 0 0 0 0 0 0 0 0 0 0 0 0 0 0 0 0 0 0 0 0

GEFSMW_con_prob3kmehi_132.txt.gz
EHI
38 40 44 47 47 46 44 37 29 21 13 7 4 2 0 0 0 0 0 0 0 1 0 0 0 0 0 0 0 0 0 0 0 0 0 0 0 0 0 0 0 0 0
40 42 46 48 47 45 42 36 29 22 15 9 5 2 0 0 0 0 0 0 1 1 1 0 0 0 0 0 0 0 0 0 0 0 0 0 0 0 0 0 0 0 0
43 44 45 46 44 41 39 35 29 23 17 12 8 4 2 1 1 1 1 1 2 2 1 0 0 0 0 0 0 0 0 0 0 0 0 0 0 0 0 0 0 0 0
45 44 41 40 38 37 35 32 28 23 19 16 12 7 4 3 2 2 2 3 3 3 2 1 0 0 0 0 0 0 0 0 0 0 0 0 0 0 0 0 0 0 0
43 39 34 31 32 31 29 26 24 21 19 17 15 11 7 4 3 3 3 3 3 3 3 2 1 0 0 0 0 0 0 0 0 0 0 0 0 0 0 0 0 0 0
40 34 27 24 25 25 23 21 18 16 15 15 13 11 8 4 3 3 3 3 3 3 3 3 2 1 0 0 0 0 0 0 0 0 0 0 0 0 0 0 0 0 0
34 28 22 20 21 21 19 16 13 11 11 11 11 9 7 5 3 3 3 3 3 3 3 3 2 1 0 0 0 0 0 0 0 0 0 0 0 0 0 0 0 0 0
26 23 19 18 19 18 16 13 10 9 9 9 8 7 6 4 3 2 3 3 3 3 3 3 2 1 0 0 0 0 0 0 0 0 0 0 0 0 0 0 0 0 0
21 19 16 15 14 13 11 10 8 6 6 6 6 5 4 3 1 1 1 2 2 2 2 2 2 1 0 0 0 0 0 0 0 0 0 0 0 0 0 0 0 0 0
19 17 14 11 10 9 9 8 7 6 5 5 4 4 3 1 0 0 0 1 1 1 1 1 1 0 0 0 0 0 0 0 0 0 0 0 0 0 0 0 0 0 0
16 14 11 10 10 10 9 8 7 7 6 4 3 3 2 1 0 0 0 0 0 0 0 0 0 0 0 0 0 0 0 0 0 0 0 0 0 0 0 0 0 0 0
16 14 13 12 13 13 10 8 6 6 5 3 2 2 1 0 0 0 0 0 0 0 0 0 0 0 0 0 0 0 0 0 0 0 0 0 0 0 0 0 0 0 0
18 17 16 15 14 13 10 8 5 4 4 3 2 1 1 1 0 0 0 0 0 1 1 1 1 0 0 0 0 0 0 0 0 0 0 0 0 0 0 0 0 0 0
20 18 16 13 10 10 9 8 5 4 4 4 3 2 2 2 1 0 0 0 0 1 2 2 2 1 1 0 0 0 0 0 0 0 0 0 0 0 0 0 0 0 0
19 17 14 11 7 7 6 5 4 3 3 3 3 2 3 3 2 1 1 1 0 1 1 2 1 1 1 0 0 0 0 0 0 0 0 0 0 0 0 0 0 0 0
17 15 12 9 7 5 4 3 2 3 3 2 1 1 1 2 2 1 2 2 1 0 0 0 0 1 1 0 0 0 0 0 0 0 0 0 0 0 0 0 0 0 0
15 14 11 9 7 5 5 3 2 2 1 1 0 0 0 1 1 1 2 2 2 1 0 0 0 0 0 0 0 0 0 0 0 0 0 0 0 0 0 0 0 0 0
11 11 11 10 8 7 6 4 3 1 0 0 0 0 0 0 0 0 1 1 2 1 0 0 0 0 0 0 0 0 0 0 0 0 0 0 0 0 0 0 0 0 0
5 7 10 12 10 8 6 6 5 3 1 0 0 0 0 0 0 0 0 0 1 1 0 0 0 0 0 0 0 0 0 0 0 0 0 0 0 0 0 0 0 0 0
4 7 11 12 9 6 6 7 7 4 2 0 0 0 0 0 0 0 0 0 0 0 0 0 0 0 0 0 0 0 0 0 0 0 0 0 0 0 0 0 0 0 0
5 9 11 9 5 3 4 6 5 3 1 0 0 0 0 0 0 0 0 0 0 0 0 0 0 0 0 0 0 0 0 0 0 0 0 0 0 0 0 0 0 0 0
6 7 7 5 3 1 2 3 2 1 0 0 0 0 0 0 0 0 0 0 0 0 0 0 0 0 0 0 0 0 0 0 0 0 0 0 0 0 0 0 0 0 0
5 4 4 4 3 1 1 1 0 0 0 0 0 0 0 0 0 0 0 0 0 0 0 0 0 0 0 0 0 0 0 0 0 0 0 0 0 0 0 0 0 0 0
3 2 2 3 2 1 0 0 0 0 0 0 0 0 0 0 0 0 0 0 0 0 0 0 0 0 0 0 0 0 0 0 0 0 0 0 0 0 0 0 0 0 0
1 1 1 1 1 0 0 0 0 0 0 0 0 0 0 0 0 0 0 0 0 0 0 0 0 0 0 0 0 0 0 0 0 0 0 0 0 0 0 0 0 0 0
0 0 0 0 0 0 0 1 1 1 0 0 0 0 0 0 0 0 0 0 0 0 0 0 0 0 0 0 0 0 0 0 0 0 0 0 0 0 0 0 0 0 0

GEFSMW_con_prob3kmehi_138.txt.gz
EHI
41 47 49 47 50 54 54 53 50 49 44 32 20 12 6 3 2 3 2 0 0 1 2 3 1 0 0 0 0 0 1 0 0 0 0 0 0 0 0 0 0 0 0
43 48 51 50 52 56 56 54 52 50 45 35 22 13 6 4 4 4 3 1 1 1 2 3 2 1 1 1 1 1 1 1 0 0 0 0 0 0 0 0 0 0 0
43 46 50 52 56 58 56 52 51 49 45 37 26 16 9 6 6 6 5 4 3 3 3 3 3 4 3 2 2 2 3 2 1 2 1 0 0 0 0 0 1 0 0
39 43 48 51 55 57 53 48 47 46 42 37 30 21 13 9 7 7 8 7 5 4 3 3 4 5 4 4 3 3 4 4 4 4 2 0 0 0 0 0 0 0 0
34 41 49 51 52 51 48 47 45 43 39 34 29 21 14 10 8 8 9 8 6 4 4 4 5 6 5 5 4 3 4 7 7 6 4 2 2 2 1 0 0 0 0
35 42 50 52 49 46 46 45 43 40 35 30 23 16 11 10 11 10 9 7 6 6 5 5 6 6 6 6 6 5 6 9 10 9 7 5 4 4 2 1 0 0 0
42 47 51 50 46 44 43 42 41 38 33 26 19 14 11 11 11 10 8 6 6 7 6 6 7 7 6 7 7 7 8 9 10 10 9 7 6 5 3 2 1 0 0
48 52 52 47 44 42 41 39 38 36 30 24 19 15 13 11 10 7 6 6 6 7 7 7 7 7 6 7 7 7 7 8 8 8 10 10 8 5 4 4 2 1 0
48 52 52 45 40 38 36 34 32 32 27 22 18 14 13 12 9 7 5 5 7 7 7 6 6 6 6 7 7 6 7 9 10 9 10 12 9 5 6 6 4 2 1
43 49 50 43 36 33 31 28 26 24 21 17 14 11 11 11 10 8 6 5 6 6 5 4 4 5 5 5 5 6 7 11 13 11 11 12 10 7 6 6 5 3 2
41 47 48 41 36 32 29 26 22 19 15 13 12 10 9 9 9 8 6 4 4 5 4 3 3 3 3 3 3 4 6 8 11 10 10 12 12 10 8 7 7 6 5
46 49 47 41 38 35 32 28 24 19 14 12 11 11 10 9 8 7 4 3 3 3 4 4 4 3 2 3 4 5 5 6 7 8 10 11 12 12 11 10 10 8 6
51 51 48 43 42 40 36 31 27 21 17 14 12 11 10 10 8 6 4 3 3 3 4 5 5 5 4 6 7 7 7 7 7 8 10 11 10 9 10 11 11 8 5
55 53 52 49 47 43 38 33 29 25 21 17 15 13 10 8 7 7 6 5 4 4 5 7 7 6 6 8 8 8 8 9 9 10 10 10 8 6 6 7 8 6 4
57 56 57 57 53 47 39 33 30 27 22 18 16 13 10 7 7 8 7 6 6 6 7 8 8 6 5 5 6 6 7 9 10 10 8 7 6 5 3 3 4 4 3
59 59 60 62 59 52 44 37 32 28 23 18 16 14 11 9 8 8 7 8 8 7 8 10 9 7 4 2 2 2 4 6 7 6 5 4 5 4 2 1 1 1 1
59 60 64 66 62 55 49 43 38 32 27 22 19 16 15 12 9 8 9 9 9 8 8 9 9 8 5 1 0 0 1 2 2 2 2 3 5 6 4 2 1 1 1
56 59 63 66 63 57 53 50 44 38 34 30 24 20 19 16 12 10 11 11 9 8 7 7 8 8 5 1 0 0 0 1 1 2 3 5 7 7 5 3 2 2 2
56 58 61 63 62 58 56 54 48 43 40 36 29 24 21 19 16 14 14 12 10 8 7 6 7 7 4 1 0 0 0 1 2 3 4 5 6 6 3 2 3 3 3
59 60 60 61 61 58 57 55 51 44 39 35 31 27 24 22 20 18 17 14 10 7 6 6 5 4 2 0 0 0 1 1 2 4 3 3 3 2 1 1 1 2 1
59 59 58 59 59 57 55 53 49 42 35 31 30 28 25 21 20 19 17 14 11 9 7 5 3 2 1 0 0 0 1 2 2 3 3 2 1 0 0 0 0 0 0
53 54 52 51 51 51 50 47 42 36 30 27 26 25 22 18 17 17 15 12 11 10 8 5 2 2 1 0 0 0 1 1 1 2 2 2 1 0 0 0 0 0 0
46 47 44 40 39 39 39 37 31 25 22 21 20 19 17 15 14 14 13 11 9 8 6 3 2 2 1 0 0 0 0 0 0 1 1 1 0 0 0 0 0 0 0
38 38 35 30 27 27 27 24 19 16 15 15 15 14 12 11 11 11 9 8 6 5 4 3 2 2 1 0 0 0 0 0 0 0 0 0 0 0 0 0 0 0 0
24 24 22 19 16 17 16 13 10 11 12 12 11 11 9 7 6 6 5 4 3 3 3 3 3 2 1 0 0 1 0 0 0 0 0 0 0 0 0 0 0 0 0
13 12 12 11 11 11 11 8 7 8 10 10 9 9 7 5 4 4 3 2 1 1 1 2 2 2 1 0 0 1 0 0 0 0 0 0 0 0 0 0 0 0 0

GEFSMW_con_prob3kmehi_144.txt.gz
EHI
74 76 75 73 74 76 76 73 73 72 65 54 47 42 33 23 19 25 31 30 27 24 18 15 21 20 14 11 9 7 5 3 1 0 0 1 3 6 7 6 6 5 5
75 76 75 73 74 75 75 74 74 73 66 57 50 43 34 26 23 28 32 30 29 26 20 17 21 21 16 13 11 9 5 3 1 0 0 0 2 4 5 6 7 7 6
74 74 74 74 74 75 75 75 76 75 70 61 52 45 38 31 28 31 33 32 31 28 24 23 25 25 21 17 16 12 7 5 3 2 1 2 2 2 3 5 7 9 10
69 72 74 74 73 73 74 77 78 77 73 64 53 45 38 32 28 29 32 32 31 28 27 29 30 28 24 21 19 17 13 10 7 6 5 4 4 3 3 4 6 10 12
61 66 72 74 73 72 75 78 80 79 74 65 54 45 37 30 24 24 26 28 28 25 24 28 31 29 25 22 22 23 21 16 14 12 8 8 8 6 5 4 5 8 10
55 62 69 73 74 73 76 80 82 79 73 65 55 47 38 30 23 19 19 21 22 20 18 23 30 29 25 23 26 29 26 22 20 16 11 10 10 7 4 3 3 5 6
55 60 68 74 76 75 76 80 81 78 72 64 58 50 40 30 23 18 15 16 16 17 19 24 31 30 25 22 25 28 25 21 20 16 11 10 8 5 3 2 2 4 5
56 60 65 72 76 76 76 78 79 76 69 63 58 49 38 28 22 19 16 14 14 17 23 30 32 29 24 21 21 23 21 17 15 13 10 7 4 2 3 3 2 3 4
56 58 63 68 74 77 77 77 76 72 65 59 52 42 33 25 20 17 15 14 13 16 23 30 30 27 23 22 22 20 18 16 13 12 10 6 3 3 3 3 4 4 4
55 60 65 68 71 74 75 74 73 70 63 55 45 34 28 23 17 14 12 12 12 16 21 25 26 26 25 24 23 21 18 16 13 12 11 8 6 7 7 7 8 8 7
55 64 71 70 69 70 72 72 71 68 62 55 44 32 26 23 18 14 12 11 13 17 21 23 23 25 27 25 22 20 17 14 12 11 10 10 11 12 14 15 15 13 11
55 66 74 73 70 69 71 71 67 62 59 55 47 36 29 25 20 17 15 14 15 18 21 22 23 24 25 23 20 18 17 15 13 11 10 11 14 16 18 19 19 16 11
61 69 77 78 76 76 76 70 62 56 53 53 50 43 35 29 25 22 21 19 18 19 19 20 23 24 22 20 18 18 20 19 15 13 12 14 17 19 19 19 18 14 9
71 77 83 85 86 86 82 72 62 56 52 51 52 48 40 35 33 31 27 24 21 20 18 19 21 23 19 17 17 19 21 20 18 15 14 15 17 17 17 17 16 12 7
76 81 86 90 91 89 83 75 66 61 58 55 54 51 44 40 38 36 33 30 26 23 21 20 19 19 16 13 13 15 17 19 19 17 14 11 10 10 10 11 12 9 7
74 78 84 88 89 87 83 78 73 67 63 60 56 52 47 42 38 35 36 37 33 27 25 23 19 16 12 7 6 8 11 14 16 16 13 7 4 3 3 3 3 4 4
72 77 83 87 88 86 84 82 77 71 66 62 56 51 46 40 36 34 35 36 34 29 26 25 20 16 10 3 1 2 6 8 10 12 10 6 3 1 0 1 1 2 3
76 80 84 87 89 87 85 82 77 71 67 63 56 49 43 38 35 34 34 34 31 28 28 27 23 18 11 3 0 0 3 5 7 7 8 7 4 1 0 1 3 3 3
82 84 85 87 90 89 85 81 77 72 67 63 57 48 43 41 38 36 35 34 31 30 29 28 25 21 11 3 0 0 2 5 7 7 7 7 4 1 0 1 2 3 2
84 85 87 89 90 89 87 82 77 72 66 63 58 51 47 45 41 38 37 34 30 29 27 25 24 20 12 4 1 0 1 4 7 8 7 4 2 0 0 0 1 1 0
84 84 86 86 85 85 84 81 77 71 65 61 57 53 49 44 42 40 37 33 29 27 24 23 21 18 12 5 1 0 0 2 4 6 5 2 0 0 0 0 0 0 0
81 80 79 78 77 76 75 74 72 68 62 58 54 51 45 41 39 38 36 33 30 25 21 19 18 16 12 6 1 0 0 0 2 3 3 1 0 0 0 0 0 0 0
72 70 69 69 68 67 64 63 64 61 58 54 49 44 41 38 35 32 31 30 27 22 17 15 14 14 12 6 2 0 0 0 0 1 1 0 0 0 0 0 0 0 0
63 62 61 60 59 57 55 53 53 52 50 45 40 35 33 33 31 27 24 22 19 15 12 11 11 11 9 4 1 0 0 0 0 0 0 0 0 0 0 0 0 0 0
54 54 53 49 45 43 41 40 40 41 40 35 30 26 23 23 24 21 16 12 9 7 6 7 7 6 3 2 1 0 0 0 0 0 0 0 0 0 0 0 0 0 0
48 46 43 39 34 31 29 29 31 32 31 29 25 20 17 17 19 17 11 5 3 2 2 3 3 2 1 0 1 0 0 0 0 0 1 1 1 0 0 0 0 0 0

GEFSMW_con_prob3kmehi_150.txt.gz
EHI
51 56 62 65 64 60 56 52 50 45 38 28 20 14 10 6 2 2 4 5 4 4 4 2 1 0 0 0 0 0 0 0 0 0 0 0 0 0 0 0 0 0 0
59 62 66 68 67 64 58 54 52 46 38 29 22 16 11 5 1 1 4 6 7 6 4 3 2 1 1 1 1 1 0 0 0 0 0 0 0 0 0 0 0 0 0
66 68 69 69 69 66 61 57 53 46 37 29 25 21 15 8 3 1 2 6 7 7 5 4 3 2 2 2 2 2 1 1 0 0 0 0 0 0 0 0 0 0 0
66 67 68 68 67 64 62 58 53 46 37 30 27 24 19 13 7 3 1 3 4 5 6 5 4 2 1 2 3 3 3 2 1 0 0 0 0 0 0 0 0 0 0
60 62 65 66 66 64 62 57 52 45 37 31 27 23 19 14 9 5 2 2 3 4 5 5 4 2 1 2 3 3 3 3 2 1 0 0 0 0 0 0 0 0 0
54 57 63 66 68 67 64 58 52 45 38 32 28 22 16 12 9 6 4 3 3 4 4 3 3 3 3 3 3 3 3 3 3 2 1 1 0 0 0 0 0 0 0
51 55 60 66 69 69 66 61 55 48 39 33 28 23 16 11 9 8 7 6 4 2 2 3 4 4 4 3 3 3 3 3 3 2 2 1 0 0 0 0 0 0 0
51 54 58 62 66 67 65 62 57 50 40 33 28 22 16 10 8 8 8 6 4 1 2 4 6 6 5 4 3 3 3 2 1 1 1 1 0 0 0 0 0 0 0
52 54 56 59 61 63 62 59 55 47 37 29 24 20 15 9 6 6 6 4 2 1 2 5 6 6 6 5 3 2 1 1 0 0 0 0 0 0 0 0 0 0 0
51 51 53 54 56 57 57 55 50 42 32 25 21 16 12 8 5 4 4 3 2 2 4 5 6 6 5 4 3 1 0 0 0 0 0 0 0 0 0 0 0 0 0
49 49 49 49 50 53 54 51 46 39 32 27 20 13 10 7 4 4 5 5 4 5 5 5 4 4 4 3 3 2 1 1 0 0 0 0 0 0 0 0 0 0 0
47 48 49 49 50 54 56 52 46 39 34 28 21 14 11 8 5 5 6 6 6 6 6 4 3 2 3 4 4 3 2 2 2 1 1 0 0 0 0 0 0 0 0
48 50 52 52 53 54 56 54 47 40 34 30 24 19 15 12 8 7 7 8 7 7 5 4 3 3 3 3 4 4 4 4 4 4 3 2 0 0 0 0 0 0 0
51 52 53 54 52 50 51 52 48 42 37 33 28 23 20 16 11 10 10 9 7 6 4 3 3 3 3 3 4 4 5 5 5 4 4 3 1 0 0 0 0 0 0
50 52 52 51 48 45 45 46 47 44 40 37 32 28 25 20 15 13 11 8 6 5 3 3 3 2 3 3 3 4 4 4 3 2 2 2 1 1 0 0 0 0 0
50 51 53 52 50 46 43 43 45 45 42 40 36 33 29 25 20 15 11 7 5 3 3 2 3 3 3 3 2 2 2 2 1 0 0 0 0 0 0 0 0 0 0
53 53 55 56 55 51 48 47 48 48 46 42 38 34 32 30 25 18 12 8 5 3 3 3 3 3 2 1 1 1 1 1 0 0 0 0 0 0 0 0 0 0 0
56 55 55 56 56 55 54 56 55 51 47 42 36 32 31 30 25 19 13 9 5 3 3 2 3 2 1 0 0 0 0 0 0 0 0 0 0 0 0 0 0 0 0
61 58 55 54 54 55 56 58 55 47 42 38 33 29 27 25 21 17 12 7 4 3 1 1 1 1 1 0 0 0 0 0 0 0 0 0 0 0 0 0 0 0 0
63 61 57 53 51 52 53 53 49 40 34 32 30 26 23 21 17 15 12 7 4 3 1 0 0 0 0 0 0 0 0 0 0 0 0 0 0 0 0 0 0 0 0
61 60 57 52 49 49 50 48 43 36 30 28 26 25 22 18 15 14 12 7 4 3 2 0 0 0 0 0 0 0 0 0 0 0 0 0 0 0 0 0 0 0 0
57 56 53 49 48 48 50 48 42 34 29 26 23 22 21 17 16 15 13 9 7 5 3 2 2 2 1 0 0 0 0 0 0 0 0 0 0 0 0 0 0 0 0
50 48 46 44 43 44 46 46 41 34 29 24 20 18 17 16 16 15 12 11 10 9 7 6 5 3 1 0 0 0 0 0 0 0 0 0 0 0 0 0 0 0 0
38 37 38 37 35 34 36 36 34 30 26 22 16 13 13 13 11 9 7 7 7 7 7 6 5 3 1 0 0 0 0 0 0 0 0 0 0 0 0 0 0 0 0
26 27 29 29 26 24 24 25 24 22 20 17 13 11 9 7 4 3 2 2 2 2 3 2 2 2 1 0 0 0 0 0 0 0 0 0 0 0 0 0 0 0 0
20 22 23 22 20 18 18 18 17 17 15 14 13 10 6 3 1 0 0 0 0 0 0 0 0 1 0 0 0 0 0 0 0 0 0 0 0 0 0 0 0 0 0

GEFSMW_con_prob3kmehi_156.txt.gz
EHI
12 14 22 31 32 28 28 30 27 22 18 13 6 2 0 0 0 0 0 0 0 1 1 0 0 0 0 0 0 0 0 0 0 0 0 0 0 0 0 0 0 0 0
16 18 23 31 35 32 31 31 28 26 22 16 10 4 1 0 0 0 0 0 1 1 1 1 1 0 0 0 0 0 0 0 0 0 0 0 0 0 0 0 0 0 0
21 22 26 33 37 36 34 32 31 30 27 23 17 11 7 4 2 1 0 0 1 1 1 2 2 1 1 0 0 0 1 1 1 0 0 0 0 0 0 0 0 0 0
25 25 28 34 38 36 34 33 33 32 30 28 25 21 15 9 4 2 0 0 0 0 1 2 2 2 1 0 0 0 1 2 1 1 0 0 0 0 0 0 0 0 0
28 27 28 32 35 35 34 33 32 33 32 30 28 25 19 12 5 1 0 0 0 0 2 2 1 1 1 0 0 0 1 1 1 1 1 1 1 0 0 0 0 0 0
29 27 26 29 34 37 39 37 36 35 34 32 29 26 21 14 8 3 2 1 0 1 2 2 1 0 0 0 0 0 0 0 1 2 2 2 2 1 0 0 0 0 0
25 23 24 29 37 44 47 45 41 36 32 32 30 26 21 16 12 7 3 1 1 1 2 2 2 1 1 1 1 1 1 1 1 2 2 2 2 1 0 0 0 0 0
21 20 22 29 39 47 49 46 40 34 31 30 28 24 18 15 12 6 2 1 0 1 1 2 2 2 3 3 3 3 2 1 1 1 1 1 1 0 0 0 0 0 0
19 20 23 29 37 44 45 42 38 33 29 26 23 18 15 13 10 4 1 0 0 0 1 2 3 4 4 3 3 2 1 1 0 0 0 0 0 0 0 0 0 0 0
20 22 25 29 34 37 37 37 35 30 24 20 18 15 13 11 7 4 1 1 1 0 1 3 5 4 2 1 1 1 0 0 0 0 0 0 0 0 0 0 0 0 0
20 21 25 30 31 30 31 32 30 25 19 17 16 15 12 9 6 4 3 2 2 1 2 5 5 3 1 0 0 0 0 0 0 0 0 0 0 0 0 0 0 0 0
20 20 24 29 28 27 27 28 27 22 19 17 16 13 10 8 7 5 4 3 2 2 3 5 5 2 0 0 0 0 0 0 0 0 0 0 0 0 0 0 0 0 0
22 23 26 28 28 26 25 25 24 21 19 19 16 11 8 8 8 7 6 4 3 2 3 4 4 2 0 0 0 0 0 0 0 0 0 0 0 0 0 1 0 0 0
25 26 28 28 27 25 24 24 21 18 18 20 17 11 8 8 9 9 7 6 5 3 3 3 2 1 0 0 0 0 0 0 0 0 0 0 0 0 0 0 0 0 0
23 25 27 28 27 25 24 24 22 18 17 19 17 12 9 8 9 9 7 6 5 4 3 2 1 0 0 0 0 0 0 1 1 0 0 0 0 0 0 0 0 0 0
27 27 28 29 30 30 28 27 24 20 19 19 16 12 10 10 10 9 7 6 6 4 3 1 0 0 0 0 0 0 0 1 2 2 1 1 0 0 0 0 0 0 0
32 32 31 30 32 34 33 29 25 22 21 19 16 13 11 10 9 9 8 7 7 5 3 1 0 0 0 0 0 0 0 1 2 2 2 1 0 0 0 0 0 0 0
34 34 33 31 32 33 32 29 26 23 21 19 15 13 11 8 7 8 8 7 7 6 5 3 1 0 0 0 0 0 0 0 1 2 1 0 0 0 0 0 0 0 0
33 34 33 32 33 33 33 30 26 21 18 15 13 12 11 8 6 6 6 7 6 6 4 2 1 0 0 0 0 0 0 0 0 0 0 0 0 0 0 0 0 0 0
33 33 33 33 34 35 33 30 23 17 13 11 10 11 13 11 8 7 6 6 5 3 2 1 0 0 0 0 0 0 0 0 0 0 0 0 0 0 0 0 0 0 0
34 35 35 32 32 32 30 27 22 17 14 12 10 10 11 11 10 8 6 4 3 1 0 0 0 0 0 0 0 0 0 0 0 0 0 0 0 0 0 0 0 0 0
37 39 38 32 27 27 27 27 24 19 17 14 11 9 8 9 9 6 3 2 1 1 1 1 0 0 0 0 0 0 0 0 0 0 0 0 0 0 0 0 0 0 0
35 37 36 31 24 23 25 26 23 19 14 11 9 8 7 7 6 4 2 1 2 2 1 1 0 0 0 0 0 0 0 0 0 0 0 0 0 0 0 0 0 0 0
24 24 24 24 21 19 19 19 17 13 9 7 7 7 6 5 4 4 3 3 2 2 1 0 0 0 0 0 0 0 0 0 0 0 0 0 0 0 0 0 0 0 0
12 11 11 13 14 13 11 10 9 7 5 5 6 5 5 4 3 3 3 2 1 1 0 0 0 0 0 0 0 0 0 0 0 0 0 0 0 0 0 0 0 0 0
9 7 6 6 7 7 7 6 6 6 5 5 5 4 4 4 2 1 1 1 1 1 0 0 0 0 0 0 0 0 0 0 0 0 0 0 0 0 0 0 0 0 0

GEFSMW_con_prob3kmehi_162.txt.gz
EHI
31 32 32 32 33 35 40 45 43 39 37 32 28 21 12 5 4 5 7 6 5 4 4 3 4 4 4 3 4 4 5 4 4 5 4 1 1 1 1 1 0 0 0
34 36 37 36 38 41 45 47 46 45 43 38 31 24 16 8 5 6 7 8 7 6 6 5 5 5 5 5 6 7 8 8 8 7 5 2 1 1 1 0 0 0 0
37 42 44 43 44 46 46 46 48 50 49 44 36 30 25 17 12 10 9 9 9 8 9 8 7 7 6 7 9 12 13 13 12 11 8 4 2 1 1 0 0 0 0
35 42 45 43 44 44 42 43 47 51 52 47 40 37 33 27 21 14 10 10 9 9 9 9 9 9 8 9 12 14 16 17 15 13 11 7 4 3 2 1 0 0 0
30 37 39 37 38 38 40 44 50 53 53 49 44 40 36 29 22 16 13 12 12 10 8 8 9 10 11 12 14 15 16 16 16 15 13 10 7 4 2 1 1 0 0
28 32 36 36 35 35 39 46 54 57 56 53 48 41 34 27 21 17 15 15 15 13 9 7 8 10 11 14 15 14 14 13 14 15 13 10 7 4 2 1 1 0 0
28 32 36 39 38 36 39 47 55 60 59 55 51 43 33 26 22 17 16 16 15 14 11 8 6 7 9 12 13 12 11 10 10 10 10 8 6 4 3 3 2 1 0
31 34 37 40 41 39 40 46 53 57 57 55 53 45 34 25 20 15 13 13 11 10 10 7 5 5 7 9 10 10 9 7 6 4 5 7 4 4 5 5 4 3 2
40 41 39 38 39 40 41 45 50 53 54 54 51 44 33 22 15 12 11 10 8 7 6 5 6 6 7 10 10 10 9 7 5 4 6 8 7 7 7 6 6 5 3
50 50 46 40 37 40 45 49 52 53 53 51 46 39 30 21 14 11 11 10 9 7 6 6 7 7 9 10 10 10 8 6 5 6 6 8 10 11 9 7 8 7 4
53 53 52 47 42 42 48 53 56 54 50 47 44 38 29 21 16 15 14 13 12 11 10 10 10 8 8 9 10 8 6 4 3 3 3 5 8 11 11 10 11 8 5
50 53 57 56 51 49 51 53 54 50 46 45 43 38 29 21 18 18 18 18 18 16 15 15 13 10 9 10 10 8 5 3 1 1 1 3 6 9 11 12 11 7 4
52 57 63 64 61 58 56 54 50 45 43 43 42 37 30 23 19 18 20 22 23 22 20 19 17 13 10 10 9 8 7 6 3 2 3 4 6 8 9 9 7 4 2
60 66 73 73 69 66 61 56 51 47 45 44 42 39 34 29 25 23 24 25 25 25 23 22 19 16 11 8 7 7 7 6 5 4 4 4 5 7 6 5 5 3 1
67 74 81 81 76 72 67 62 58 55 52 48 45 42 39 35 33 29 30 31 29 27 25 22 19 16 10 7 7 7 7 6 5 4 3 3 4 4 4 3 3 2 1
63 73 82 83 80 76 73 68 65 62 59 55 51 47 43 41 38 34 34 36 34 30 27 23 18 14 9 5 5 6 7 7 5 4 3 3 3 3 2 1 1 1 0
55 65 75 80 80 78 75 71 68 66 63 58 53 50 48 46 41 36 37 38 37 34 31 26 20 15 9 3 1 3 5 6 5 4 4 4 3 2 2 1 0 0 0
52 60 70 75 76 76 76 74 73 70 64 56 52 50 49 49 47 42 39 38 36 34 31 26 22 18 11 3 0 1 3 5 5 4 4 3 2 1 2 2 1 1 1
51 57 65 72 75 77 78 78 77 73 64 57 52 49 48 49 49 45 40 36 32 29 26 24 21 19 12 4 0 1 2 4 5 4 3 2 1 0 1 2 2 2 2
47 52 62 70 75 79 81 82 80 72 62 57 54 51 48 46 44 43 40 33 27 25 24 23 20 17 12 5 1 1 3 4 5 5 3 2 0 0 0 2 3 4 3
46 51 61 69 74 78 80 80 76 66 56 53 54 52 47 41 38 40 40 33 27 25 24 23 19 15 10 5 1 1 2 3 4 5 5 4 1 0 0 1 3 3 2
47 52 61 68 72 75 75 72 65 56 49 49 51 50 45 39 37 38 38 33 28 25 23 20 16 13 10 5 2 1 1 2 4 6 6 4 1 0 0 0 1 1 1
49 52 57 62 66 68 69 64 57 50 47 47 48 47 43 39 38 37 34 30 26 23 18 14 12 11 10 7 3 1 0 1 3 4 4 2 0 0 0 0 0 0 0
48 50 52 53 55 59 60 57 51 48 47 45 44 41 37 35 35 33 28 23 21 18 13 9 8 8 9 7 5 3 2 1 1 1 1 0 0 0 0 0 0 0 0
44 45 46 44 43 46 48 46 43 43 44 41 38 33 29 27 26 22 18 14 12 10 7 5 5 5 5 4 4 4 3 2 0 0 0 0 0 0 0 0 0 0 0
40 41 39 36 35 35 37 37 36 37 39 38 33 27 24 22 19 13 9 6 5 4 3 2 2 2 1 1 1 2 2 1 0 0 0 0 0 0 0 0 0 0 0

GEFSMW_con_prob3kmehi_168.txt.gz
EHI
49 55 61 64 65 65 65 63 60 56 51 47 44 36 27 22 19 22 30 32 30 28 24 19 17 15 11 8 7 7 7 7 7 7 7 7 11 14 16 15 13 10 9
58 61 63 65 68 70 67 66 64 61 57 53 47 40 34 28 22 24 30 31 29 28 25 23 20 16 12 10 10 9 8 8 8 8 9 7 7 10 11 12 12 11 11
67 67 65 66 70 74 72 70 68 66 63 58 50 45 43 37 29 29 32 32 29 26 26 25 20 15 12 12 14 14 12 10 10 10 11 8 6 7 7 8 9 12 15
67 67 65 65 68 73 77 77 74 71 67 62 54 50 47 42 37 36 36 34 29 26 26 26 21 15 12 13 15 16 16 15 13 13 12 9 7 7 6 4 7 10 12
62 63 62 61 63 69 77 82 81 77 71 64 57 53 50 46 43 40 38 34 30 28 28 28 25 18 13 13 14 15 18 18 17 15 12 10 9 7 4 3 3 5 6
57 61 62 61 61 65 75 82 84 82 76 67 61 58 55 51 47 42 37 31 28 30 30 30 30 27 20 17 16 15 17 19 19 18 13 10 8 6 3 2 1 2 4
52 59 65 66 66 67 73 82 86 85 80 72 66 63 60 56 51 45 36 29 27 31 33 34 37 35 30 25 21 17 16 18 20 18 15 12 8 5 3 1 1 3 4
47 56 66 71 71 70 75 83 87 86 83 78 72 66 62 58 52 46 38 30 26 28 33 38 40 40 35 31 27 23 19 19 18 15 14 12 9 6 5 4 4 4 3
44 54 66 71 72 73 77 82 84 83 82 81 75 67 63 59 52 45 39 33 26 25 32 38 41 39 35 33 32 29 25 23 20 14 12 11 10 9 8 9 8 3 1
40 52 66 73 75 77 80 82 81 78 77 78 73 68 66 63 55 46 41 34 28 26 32 37 38 36 34 34 35 32 27 24 21 16 11 11 11 11 10 10 9 5 2
38 49 64 73 77 79 83 84 82 79 76 73 72 71 71 66 59 52 47 39 33 32 34 36 36 34 32 33 35 32 27 23 18 13 10 10 11 10 8 7 7 6 6
41 50 62 72 77 81 85 87 84 83 80 77 76 75 73 69 65 61 54 45 40 38 36 36 35 33 31 31 33 29 23 19 14 10 9 9 9 8 5 4 5 6 7
47 55 67 76 82 85 87 87 84 83 83 83 82 79 74 71 69 65 58 50 46 43 40 38 35 32 28 26 25 22 17 13 10 8 8 9 9 9 5 3 4 5 5
56 63 75 85 90 91 91 89 85 82 84 86 85 81 75 71 67 63 56 52 49 47 44 40 34 29 24 19 18 16 12 9 8 6 6 7 7 7 6 4 4 4 4
65 70 82 92 94 94 94 92 88 85 84 85 84 80 75 69 64 60 55 51 49 46 44 39 33 28 20 15 14 14 13 11 9 8 7 5 3 3 3 3 2 3 4
72 77 86 93 94 93 93 92 90 87 85 83 81 78 75 70 64 61 58 53 49 45 40 37 33 26 17 11 10 11 12 12 11 10 8 5 1 0 0 0 1 1 2
77 81 86 90 92 92 90 89 89 89 87 83 80 77 75 71 66 63 61 56 53 49 43 38 33 25 16 9 6 6 8 10 10 10 9 6 2 0 0 0 0 1 1
76 80 84 87 90 91 89 88 89 89 89 86 82 78 74 70 67 64 62 60 58 55 50 42 34 26 18 9 3 3 4 6 8 8 8 7 4 1 0 1 1 2 1
74 77 79 83 88 91 90 89 89 90 90 88 85 81 75 68 65 63 62 62 62 58 51 43 34 27 19 9 3 2 4 6 7 7 6 6 4 1 0 1 2 3 3
76 75 75 79 86 90 89 88 88 88 87 85 84 81 75 68 64 62 61 62 61 55 48 41 34 28 19 9 3 3 6 8 7 5 4 3 1 0 0 1 2 2 2
76 74 74 79 84 86 86 86 85 83 80 79 78 76 71 66 63 62 62 60 57 53 48 41 34 28 19 9 3 3 6 8 7 5 3 1 0 0 0 1 1 1 1
74 71 72 75 78 79 80 80 79 77 75 74 73 71 66 61 60 61 60 58 56 52 48 42 35 27 19 10 4 2 2 3 5 5 2 1 0 0 0 0 0 0 0
70 68 68 69 70 72 73 72 71 71 73 73 71 66 61 58 56 54 53 51 50 47 43 38 31 24 18 11 5 1 0 1 2 2 1 0 0 0 0 0 0 0 0
64 64 64 64 65 66 68 67 67 68 69 69 65 59 55 52 47 42 38 36 36 35 33 30 25 19 14 9 4 2 1 0 0 0 0 0 0 0 0 0 0 0 0
58 57 57 58 59 60 61 62 63 64 64 61 54 48 45 42 37 29 22 19 19 19 19 19 16 12 8 4 2 1 1 0 0 0 0 0 0 0 0 0 0 0 0
53 51 50 51 53 55 57 57 58 60 59 54 45 41 40 37 32 23 13 8 7 7 8 9 9 7 3 1 0 1 0 0 0 0 0 0 0 0 0 0 0 0 0

GEFSMW_con_prob3kmehi_174.txt.gz
EHI
28 37 47 49 46 43 39 36 35 31 23 15 10 7 5 4 4 4 4 4 5 6 8 9 8 5 4 3 2 1 0 0 0 0 0 0 0 0 0 0 0 0 0
35 44 51 53 51 46 41 38 36 31 26 19 12 8 5 4 4 5 7 8 8 9 10 11 9 5 3 3 1 0 1 1 1 0 0 0 0 0 0 0 0 0 0
43 48 54 56 56 52 46 42 39 35 31 25 18 13 9 5 3 3 6 9 12 12 12 12 9 4 3 2 1 1 3 4 3 1 0 0 0 0 0 0 0 0 0
45 49 53 55 57 56 52 47 44 40 36 32 28 23 16 8 3 1 3 7 11 12 13 11 8 4 1 1 1 3 4 6 5 3 1 0 0 0 0 0 0 0 0
46 50 53 54 56 59 57 54 50 46 42 38 35 31 22 13 7 5 4 6 8 11 12 11 8 4 2 1 2 4 5 6 7 5 3 1 0 0 0 0 0 0 0
49 53 53 52 55 61 63 62 59 53 47 43 39 35 26 18 13 11 9 8 9 10 10 9 7 6 4 4 5 6 6 7 8 6 4 3 2 0 0 0 0 0 0
51 52 52 53 57 64 68 68 65 60 54 49 44 38 30 23 18 15 14 13 12 11 9 7 6 6 5 5 6 6 6 7 8 6 5 4 3 1 0 0 0 0 0
49 49 51 55 59 64 68 69 66 63 59 54 49 43 36 27 21 17 15 14 13 12 11 9 7 6 5 5 6 6 6 7 7 5 4 3 2 1 0 0 0 0 0
43 44 49 55 57 61 64 66 65 63 60 56 51 46 41 33 23 17 13 11 10 11 11 10 9 8 8 6 5 5 6 6 6 4 3 2 1 0 0 0 0 0 0
35 39 46 52 55 57 61 63 64 63 59 56 53 50 46 37 25 17 12 9 8 9 8 7 7 8 9 7 5 4 5 6 5 4 2 1 0 0 0 0 0 0 0
33 36 44 51 54 57 61 62 64 65 62 58 56 54 50 40 28 20 14 10 8 6 5 5 5 6 8 8 5 4 4 5 5 4 2 1 0 0 0 0 0 0 0
34 37 44 51 55 56 60 63 65 67 67 63 59 55 49 39 32 25 18 13 9 6 5 5 5 6 8 8 6 5 5 6 6 5 4 1 0 0 0 0 0 0 0
37 39 42 49 52 52 55 60 63 66 67 64 59 54 46 38 33 28 22 17 12 8 7 6 6 6 6 7 7 6 6 6 6 6 5 3 1 0 0 0 0 0 0
40 39 40 45 48 50 51 53 58 64 67 65 60 55 46 39 35 29 23 21 17 13 10 9 8 7 6 5 6 6 6 6 6 6 6 5 3 1 0 0 0 0 0
38 37 38 42 47 49 49 49 53 62 67 66 62 55 47 41 36 30 24 23 20 16 12 11 11 10 7 4 4 5 6 5 4 4 4 4 3 1 0 0 0 0 0
33 33 36 43 47 49 50 50 52 58 65 66 61 54 49 44 38 31 25 23 20 15 12 12 12 11 7 4 3 3 4 4 3 3 3 3 1 0 0 0 0 0 0
35 35 41 49 52 51 53 56 57 60 65 65 59 54 50 45 40 34 27 22 19 14 11 12 13 10 5 3 2 2 2 2 2 2 2 1 1 1 1 1 0 0 0
42 43 49 55 56 55 58 61 64 66 68 67 62 57 52 47 43 38 30 23 17 12 10 11 12 9 4 1 1 0 1 1 1 1 1 1 1 2 2 1 1 0 0
49 50 54 56 56 57 60 62 65 68 70 69 64 59 55 50 46 40 31 22 16 12 10 10 9 7 3 1 0 0 0 1 2 1 0 0 1 1 1 1 1 1 1
54 54 53 52 52 53 56 59 62 65 66 65 62 59 56 51 45 37 29 21 16 14 12 9 6 4 2 1 0 0 0 1 2 1 0 0 0 0 0 0 0 0 0
57 55 51 49 48 49 52 54 58 59 57 56 57 56 53 48 40 32 25 21 19 16 13 10 6 3 1 0 0 0 0 1 2 1 0 0 0 0 0 0 0 0 0
53 50 47 46 46 47 49 51 53 53 50 48 48 47 45 41 33 26 23 22 21 18 15 11 6 3 1 0 0 0 0 0 1 1 0 0 0 0 0 0 0 0 0
44 42 41 43 43 44 47 49 49 49 48 44 40 37 34 31 27 23 20 20 21 20 16 11 6 3 1 0 0 0 0 0 0 0 0 0 0 0 0 0 0 0 0
36 35 36 38 39 40 43 46 46 46 46 41 34 29 26 24 22 19 17 16 18 18 15 10 6 4 2 0 0 0 0 0 0 0 0 0 0 0 0 0 0 0 0
30 30 31 32 32 34 38 40 41 42 41 35 29 25 21 19 18 15 12 11 13 13 10 7 5 4 3 1 0 0 0 0 0 0 0 0 0 0 0 0 0 0 0
28 28 27 27 28 31 34 36 36 38 36 31 26 22 18 17 15 12 9 7 8 8 7 5 4 3 2 1 0 0 0 0 0 0 0 0 0 0 0 0 0 0 0

GEFSMW_con_prob3kmehi_180.txt.gz
EHI
3 4 6 9 11 13 13 12 9 6 4 3 2 0 0 0 0 0 0 0 0 1 2 2 1 0 0 0 0 0 0 0 1 1 0 0 0 0 0 0 0 0 0
5 6 6 9 11 13 15 15 12 8 6 5 3 1 0 0 0 0 0 0 0 0 1 1 0 0 1 1 1 0 0 1 2 2 1 0 0 0 0 0 0 0 0
10 9 8 9 12 14 17 18 16 12 9 8 6 5 3 2 1 0 0 0 0 0 1 1 1 1 2 2 2 1 1 2 3 3 2 0 0 0 0 0 0 0 0
13 12 10 10 12 15 18 20 19 15 12 11 10 9 7 5 2 1 0 0 1 2 2 2 2 2 2 2 2 2 2 3 4 3 2 0 0 0 0 0 0 0 0
12 13 13 12 13 16 20 23 23 20 16 15 14 12 10 7 3 1 0 0 2 3 2 1 1 1 1 1 1 1 1 3 4 4 2 1 0 1 1 0 0 0 0
11 14 16 15 15 18 23 25 25 24 22 20 19 17 13 9 4 2 0 1 1 1 1 0 0 0 0 0 0 0 1 3 4 4 3 1 1 2 2 1 0 0 0
11 16 21 21 19 20 24 26 26 26 26 25 24 21 17 13 9 4 2 1 1 0 0 1 1 1 1 0 0 0 2 3 3 3 3 1 1 2 2 1 0 0 0
14 19 25 25 22 20 22 25 26 26 26 27 25 23 20 17 13 7 3 2 2 1 1 2 2 2 1 0 0 0 1 3 3 3 3 2 1 1 1 1 0 0 0
17 20 26 26 22 20 21 24 26 25 24 24 24 22 20 17 13 9 5 4 3 2 1 3 2 1 1 0 0 0 1 2 3 3 3 2 1 0 0 0 0 0 0
19 22 24 25 22 20 20 22 25 24 23 21 20 21 21 17 12 8 6 5 5 3 1 1 1 0 0 0 0 0 1 3 3 3 3 3 1 0 0 0 0 0 0
22 23 24 24 22 20 20 22 24 23 20 18 19 22 21 15 9 6 5 6 5 4 2 1 1 0 0 0 1 1 2 3 3 3 3 3 2 1 0 0 0 0 0
23 24 25 25 24 22 21 22 23 22 19 18 20 22 21 15 8 5 4 6 6 4 3 2 2 1 1 2 3 3 4 4 4 4 4 3 3 1 0 0 0 0 0
23 24 25 26 26 23 22 23 24 23 21 20 20 22 22 17 10 5 5 7 7 7 5 4 4 4 4 5 6 6 6 6 6 5 5 4 3 2 1 1 0 0 0
21 21 22 24 25 24 24 25 26 25 24 22 21 23 24 20 14 9 9 9 8 8 7 5 5 5 6 6 7 7 7 6 6 5 4 3 2 2 1 1 0 0 1
19 19 20 22 25 25 25 25 25 26 26 26 26 27 29 26 21 16 12 10 8 7 7 6 6 6 6 5 5 6 6 4 4 4 3 3 2 2 1 0 0 1 2
19 19 20 22 24 24 24 25 26 27 29 30 31 33 34 31 26 20 14 9 7 7 7 8 8 7 6 4 2 2 3 3 3 3 2 2 2 2 1 0 0 1 2
23 22 22 23 22 22 23 26 29 30 32 33 33 34 36 35 29 23 17 11 8 8 9 9 8 6 4 2 1 0 1 2 2 1 1 1 1 1 0 0 1 1 1
25 24 24 24 23 23 25 29 33 34 36 35 32 31 34 35 31 27 21 14 11 10 9 7 5 4 2 1 0 0 0 1 1 1 0 1 1 0 0 1 2 2 1
24 25 27 27 27 28 29 33 38 39 39 36 31 29 30 31 31 27 21 15 12 11 9 6 4 3 2 0 0 0 0 0 0 1 1 1 1 0 0 1 2 2 2
24 24 26 28 29 31 33 38 42 43 41 36 31 28 26 26 27 25 20 15 12 10 7 5 3 3 2 0 0 0 0 0 0 0 0 1 1 0 0 0 1 1 1
24 24 26 29 31 33 35 39 43 43 40 35 31 27 24 24 24 22 20 17 13 9 6 4 3 2 1 0 0 0 0 0 0 0 0 0 0 0 0 0 0 0 0
25 26 28 29 30 32 34 37 39 39 36 31 28 25 23 23 22 19 18 15 12 9 7 5 3 1 0 0 0 0 0 0 0 0 0 0 0 0 0 0 0 0 0
24 27 30 28 27 28 31 33 33 33 31 27 24 22 20 21 20 16 13 12 11 11 9 6 4 2 1 1 0 0 0 0 0 0 0 0 0 0 0 0 0 0 0
22 26 29 27 25 25 27 27 27 27 27 25 21 19 17 18 17 12 9 9 10 11 9 7 5 3 2 1 0 0 0 0 0 0 0 0 0 0 0 0 0 0 0
20 23 25 25 25 24 24 24 22 22 24 23 19 17 16 16 15 11 6 5 6 6 6 5 5 4 2 1 0 0 0 0 0 0 0 0 0 0 0 0 0 0 0
17 20 22 23 24 23 23 22 21 20 22 21 18 16 16 16 15 10 5 2 1 2 2 3 5 5 2 0 0 0 0 0 0 0 0 0 0 0 0 0 0 0 0

GEFSMW_con_prob3kmehi_186.txt.gz
EHI
10 10 9 10 17 26 31 33 32 28 23 18 12 8 5 3 3 2 1 3 5 6 8 9 10 11 9 7 4 3 3 2 1 1 0 0 0 0 0 0 1 0 0
16 15 13 13 19 28 32 34 33 29 26 21 15 8 5 5 5 4 4 6 7 8 10 11 11 12 12 9 7 4 3 3 2 2 1 0 0 0 0 0 1 1 1
20 20 19 18 22 28 31 34 35 33 31 28 21 13 9 9 8 7 7 9 10 11 11 11 12 13 14 12 9 5 3 3 3 3 2 1 1 1 1 1 1 1 2
21 21 22 22 23 26 29 34 39 39 38 36 30 24 18 12 10 10 10 11 12 10 9 10 12 14 15 12 8 4 3 3 3 3 3 2 2 3 3 2 2 2 2
20 22 22 22 23 25 29 36 44 47 46 42 38 34 25 17 13 13 15 16 14 10 7 9 13 15 13 9 5 5 5 4 5 4 4 4 4 4 4 3 3 3 1
19 23 25 25 26 27 30 38 46 51 51 46 42 38 31 25 21 20 21 20 16 11 9 10 14 16 13 7 5 6 7 8 9 8 5 3 3 4 5 5 4 3 2
20 25 30 32 33 33 35 40 46 51 51 47 42 38 34 31 28 25 24 22 18 15 14 14 15 16 13 7 5 6 8 9 11 10 6 3 3 4 6 6 5 4 3
26 29 35 38 38 38 39 42 47 50 48 43 39 37 34 31 29 28 26 24 23 22 22 20 17 14 10 6 6 7 7 8 9 8 6 5 5 5 6 5 5 4 4
34 38 41 42 41 40 41 44 49 51 47 41 36 33 32 31 29 29 29 27 26 25 24 22 17 12 7 5 6 7 7 7 6 6 6 7 7 7 6 6 5 5 5
38 43 48 49 44 40 40 43 49 52 49 44 38 33 32 33 34 34 34 32 29 27 25 22 18 13 8 8 7 8 8 8 7 8 8 9 11 11 9 8 7 7 7
36 41 49 52 50 44 42 44 48 50 50 48 42 36 35 37 39 39 40 38 34 32 30 27 22 15 11 12 13 12 12 12 11 11 11 11 12 13 12 10 9 9 9
34 40 49 55 55 51 46 45 47 48 47 46 43 40 39 41 42 42 44 44 41 39 37 34 28 21 18 18 18 17 16 14 13 14 13 12 12 12 11 9 8 8 8
36 41 50 56 57 53 47 45 45 45 44 42 43 43 44 44 43 43 44 46 46 44 42 38 33 28 24 22 21 19 15 13 12 13 13 13 12 10 8 7 6 5 5
40 44 51 56 56 52 48 45 45 46 45 43 45 48 49 48 44 42 44 47 48 48 45 40 37 32 27 23 21 17 14 11 11 12 12 11 10 8 6 6 6 5 4
44 47 52 56 56 54 51 49 49 51 50 46 46 51 54 53 48 45 47 50 52 51 46 41 36 30 21 17 16 14 12 12 11 10 9 8 7 5 3 4 5 5 4
42 43 47 53 55 55 54 52 53 56 57 52 49 53 58 59 55 51 53 56 55 52 47 40 34 25 14 8 8 8 10 11 10 8 6 5 4 2 1 1 1 2 3
37 36 40 47 49 49 51 52 52 57 60 57 54 56 59 60 57 55 56 57 57 54 48 40 33 23 11 5 3 4 6 8 7 5 4 3 3 3 2 1 1 1 2
35 35 37 40 39 39 43 47 49 54 58 58 56 57 58 55 53 53 54 55 56 54 47 39 31 22 12 5 2 2 4 6 6 6 5 4 4 4 3 2 2 3 3
37 36 36 37 37 36 37 40 43 48 54 57 58 58 56 52 48 48 52 53 52 48 41 35 29 22 13 6 2 3 6 9 10 9 6 4 3 3 2 3 3 3 2
39 37 36 38 41 41 38 36 38 43 51 57 60 60 56 50 45 45 48 48 45 41 36 32 28 22 15 6 1 4 10 14 14 12 7 3 1 1 1 2 3 3 2
37 37 36 38 41 41 39 37 37 41 47 53 57 58 55 47 42 42 42 41 39 36 34 30 25 22 16 8 2 3 10 14 15 13 8 3 1 0 0 1 2 2 2
33 34 34 34 37 39 39 38 38 40 43 47 51 52 50 46 42 41 38 37 36 34 31 28 25 22 17 9 2 1 4 9 12 12 8 4 1 0 0 0 1 1 1
27 27 27 28 32 36 37 38 39 40 41 44 46 46 45 44 41 38 36 36 35 32 27 24 22 21 17 10 4 1 1 3 6 8 5 3 1 0 0 0 0 0 0
21 20 21 23 28 34 35 36 37 39 40 42 42 40 37 36 33 31 31 33 33 30 27 22 19 18 16 12 8 4 2 2 3 4 4 2 0 0 0 1 1 0 0
18 16 17 20 24 28 31 33 34 35 36 37 37 33 29 27 25 23 24 26 25 23 21 20 18 16 14 10 7 5 3 2 2 3 4 2 0 0 1 2 2 1 0
16 15 16 20 22 23 27 30 31 32 34 34 32 29 25 24 22 19 17 17 16 13 12 14 15 13 9 5 4 3 2 1 1 2 4 2 0 1 2 3 2 1 0

GEFSMW_con_prob3kmehi_192.txt.gz
EHI
43 47 47 48 58 67 67 59 52 49 43 35 32 33 31 27 25 29 36 37 33 29 26 24 27 28 25 19 11 7 6 4 4 4 4 6 10 15 18 18 17 19 22
48 54 53 50 60 71 71 64 58 54 48 39 32 28 26 25 27 36 41 39 36 34 31 29 28 30 30 26 19 15 11 6 3 4 4 4 6 8 10 13 16 18 20
52 59 58 54 63 74 75 69 66 63 57 48 38 31 30 30 33 42 46 44 41 39 37 35 32 30 31 30 27 24 20 12 4 3 4 2 2 2 3 6 12 17 19
54 61 62 59 65 73 77 76 74 71 65 57 47 40 39 39 39 45 49 49 45 41 39 39 37 33 31 31 29 27 23 16 6 3 3 4 3 3 2 3 7 12 15
54 60 63 64 68 73 78 81 82 79 71 61 53 47 42 40 42 47 50 49 48 45 42 42 41 37 33 32 31 26 21 15 9 4 4 5 6 6 5 5 5 8 9
54 58 64 69 73 75 78 83 86 84 74 63 55 51 45 40 40 44 47 46 47 48 47 45 45 40 35 34 35 31 23 18 14 10 7 5 5 5 6 6 5 6 7
52 57 65 72 78 79 80 85 88 86 76 64 59 57 52 43 40 41 42 43 44 47 50 50 49 44 37 35 36 34 29 25 22 17 11 7 5 4 6 6 5 5 5
46 53 63 72 79 82 83 87 91 88 78 67 62 62 57 48 43 43 41 40 41 45 51 54 52 48 40 34 34 33 32 32 29 22 17 14 9 8 8 7 5 4 4
40 47 56 65 74 80 85 89 92 88 80 71 66 65 62 55 50 49 46 42 42 46 53 55 51 47 41 36 33 31 31 33 32 27 23 19 14 11 11 10 8 6 5
35 42 51 57 64 72 81 89 92 89 83 75 67 64 63 59 55 53 51 49 47 51 57 56 49 44 43 40 36 32 32 33 32 29 26 21 15 12 12 13 11 9 8
33 41 50 56 61 65 74 84 90 89 84 76 68 64 62 61 58 56 55 55 54 56 59 56 48 45 45 43 39 35 33 32 31 28 25 21 16 13 13 14 13 11 10
36 42 54 62 64 65 70 78 83 84 80 76 72 67 65 64 61 58 57 58 59 59 58 56 51 49 49 48 45 40 35 32 30 27 23 19 15 14 14 15 15 12 10
41 48 59 66 68 68 70 74 76 76 75 76 75 71 68 67 64 60 59 60 60 59 56 55 55 55 56 54 50 44 38 33 28 25 22 17 13 12 13 14 15 13 9
48 53 62 66 68 69 71 72 72 73 74 76 76 74 70 67 65 63 63 63 62 60 58 57 57 57 55 53 48 44 40 34 27 23 20 14 10 8 7 9 11 11 9
53 58 64 67 68 69 69 69 70 73 74 76 77 75 71 68 67 67 69 68 66 63 60 58 56 52 46 41 39 40 40 35 27 22 17 10 6 4 4 5 6 7 7
54 58 64 67 68 68 68 67 68 72 74 76 75 73 71 70 70 71 72 72 69 64 59 54 52 46 36 27 28 34 37 33 27 22 16 8 4 4 4 3 3 4 4
47 51 57 62 65 66 66 65 66 69 72 73 72 71 71 70 71 71 71 70 67 60 54 50 48 43 30 19 17 24 30 29 25 22 17 11 7 6 6 5 4 3 3
42 45 49 54 59 61 62 62 62 64 65 65 66 66 67 68 68 68 67 65 61 55 50 48 47 40 25 12 9 15 22 25 22 20 18 15 10 8 7 8 8 6 5
43 43 44 47 51 53 54 56 58 58 57 56 56 58 62 64 65 65 64 61 57 52 49 47 44 36 22 10 5 9 17 21 19 18 17 15 11 7 5 6 8 8 7
44 43 43 44 46 47 49 52 54 52 50 49 51 54 57 60 61 62 61 58 55 52 47 42 39 35 25 12 4 6 13 18 18 18 15 12 8 4 2 3 5 6 6
44 44 45 45 45 45 47 50 51 49 46 46 48 52 55 55 55 56 56 54 52 50 44 38 36 36 28 14 5 4 8 14 17 17 15 10 5 1 0 1 2 3 3
43 43 45 45 45 44 44 46 48 48 47 46 47 49 50 49 49 50 49 48 47 44 39 36 34 34 29 16 6 2 3 7 12 14 12 7 2 0 0 0 1 1 1
37 38 41 42 40 38 38 40 42 44 46 47 47 45 44 44 46 46 44 41 38 35 34 34 32 31 28 18 7 2 1 2 5 7 6 3 1 0 0 0 0 0 0
31 32 35 35 34 32 33 35 36 38 42 44 44 42 41 41 42 41 37 32 29 29 31 32 29 27 24 19 12 6 2 1 2 3 1 0 0 0 0 1 1 0 0
28 29 29 30 30 28 29 31 32 34 38 40 40 39 38 36 36 34 28 23 22 22 23 24 23 20 18 16 12 8 4 2 2 2 1 0 1 1 1 3 3 2 1
27 27 26 27 28 25 25 28 30 32 36 38 37 36 35 33 32 29 22 18 18 18 17 17 17 15 14 12 9 6 5 4 3 2 1 1 2 2 3 4 5 4 3

GEFSMW_con_prob3kmehi_198.txt.gz
EHI
19 24 31 37 38 35 31 27 23 18 14 13 13 10 5 1 0 1 5 11 17 18 13 8 5 3 1 0 0 0 0 0 0 0 0 0 0 0 0 0 0 0 0
24 28 34 39 41 40 35 31 27 21 17 16 14 12 8 3 1 2 5 11 18 20 17 11 8 5 2 1 1 1 0 0 0 0 0 0 0 0 0 0 0 0 0
30 33 36 40 44 44 41 37 33 28 23 20 17 17 14 10 6 4 5 11 17 20 19 17 14 10 6 3 3 2 1 1 0 0 0 0 0 0 0 0 0 0 0
34 36 39 41 44 47 47 45 41 37 32 26 23 22 21 17 11 6 5 8 13 17 19 20 19 16 11 8 5 3 2 1 0 0 0 0 0 0 0 0 0 0 0
38 40 42 43 45 49 53 53 48 43 40 35 29 27 26 20 13 7 5 7 10 14 18 21 21 20 16 12 7 4 2 1 0 0 0 0 0 0 0 0 0 0 0
41 43 45 46 48 52 57 59 55 49 46 41 34 29 26 20 14 10 8 9 10 14 19 21 21 20 19 14 9 6 3 1 0 0 0 0 0 0 0 0 0 0 0
38 41 44 48 53 57 60 62 60 55 50 44 36 31 26 21 17 15 13 12 14 17 20 22 22 21 20 16 11 8 4 1 0 0 0 0 1 0 0 0 0 0 0
34 37 41 46 53 59 62 62 62 59 53 45 38 33 28 24 19 16 14 12 14 18 21 22 23 23 22 19 15 10 6 3 2 2 1 0 0 0 0 0 0 0 0
33 36 39 44 51 58 61 62 62 60 56 49 42 37 32 27 21 16 14 12 12 15 20 22 22 21 21 20 17 12 9 7 6 4 2 0 0 0 0 0 0 0 1
31 35 41 47 53 57 60 62 61 58 55 50 44 37 32 28 22 18 16 14 13 16 21 23 21 19 19 19 16 13 11 10 8 5 1 0 0 0 0 0 0 0 1
29 35 43 51 55 57 59 59 58 56 52 47 41 35 30 26 22 20 19 18 17 19 24 27 25 21 18 17 15 14 12 11 9 5 2 1 0 0 0 0 0 0 1
28 35 45 51 55 57 57 57 55 53 51 46 39 33 29 26 23 21 21 21 21 22 25 30 30 25 19 18 18 17 14 11 9 6 4 3 2 1 1 0 0 0 0
28 37 45 49 52 55 55 54 53 52 51 47 41 34 30 28 27 25 23 23 23 23 26 30 31 26 22 21 21 19 15 12 10 7 6 6 4 2 1 1 1 1 0
30 36 43 47 50 52 51 51 52 51 48 46 43 38 32 30 29 27 24 23 23 23 25 29 28 25 23 21 19 19 17 14 11 9 8 7 5 3 2 2 2 2 1
33 36 42 46 47 47 47 46 47 47 46 44 42 39 35 32 29 26 24 23 23 23 24 26 24 22 20 17 15 17 18 15 13 10 8 6 4 3 2 2 3 3 3
33 36 41 43 41 40 38 37 38 41 43 43 41 40 39 37 34 29 27 25 24 24 25 25 24 20 17 12 11 13 15 15 12 10 8 6 4 3 2 1 1 2 2
32 34 37 37 35 33 30 29 32 36 39 40 40 40 40 39 38 35 33 30 27 26 27 26 25 20 14 9 7 8 10 10 9 8 7 6 4 3 1 0 0 1 2
29 31 33 33 30 29 30 31 34 37 36 35 34 35 35 36 36 36 35 33 30 29 28 27 25 21 13 8 5 5 6 6 6 5 5 4 3 1 1 0 0 1 2
27 29 31 31 29 29 32 35 37 36 34 31 29 29 31 33 33 34 34 33 31 29 27 26 26 22 15 8 4 4 5 6 5 3 2 1 1 0 0 0 0 1 2
25 26 27 28 27 28 31 34 34 31 28 27 27 27 28 30 31 32 34 34 31 27 25 25 26 23 16 8 4 4 5 6 5 2 1 1 0 0 0 0 0 0 1
21 20 20 22 24 25 28 30 28 25 22 22 23 24 25 26 28 30 33 33 31 27 25 24 24 21 15 8 3 2 4 4 3 2 2 2 1 0 0 0 0 0 0
17 15 15 16 18 21 24 25 23 19 18 17 19 20 21 23 23 26 28 30 31 28 25 23 21 18 13 8 3 1 1 2 1 1 2 2 1 0 0 0 0 0 0
16 16 14 14 14 16 18 18 16 14 14 15 16 18 20 20 20 21 24 27 28 26 23 22 20 17 13 9 5 1 0 0 1 1 1 1 0 0 0 0 0 0 0
17 17 15 13 13 14 13 11 11 10 11 13 16 18 19 18 18 19 21 24 24 23 21 20 19 17 15 13 8 4 2 1 1 1 0 0 0 0 0 0 0 0 0
16 16 15 13 14 15 13 10 9 9 10 12 15 17 16 15 15 16 18 19 19 18 16 15 16 16 15 13 9 6 4 3 2 1 1 1 0 0 0 0 0 0 0
13 14 14 13 15 16 14 12 10 10 10 11 14 15 14 14 14 14 14 15 16 14 11 11 13 15 14 10 6 4 4 5 3 1 2 2 1 0 0 0 0 0 0

GEFSMW_con_prob3kmehi_204.txt.gz
EHI
0 1 4 5 5 4 2 1 0 0 0 1 1 2 3 2 1 1 1 1 2 2 2 1 1 2 3 3 1 0 0 0 0 0 0 0 0 0 0 0 0 0 0
1 2 4 6 6 6 5 2 1 0 0 1 1 2 3 3 2 2 2 2 2 2 1 1 2 2 3 3 2 1 1 1 1 1 0 0 0 0 0 0 0 0 0
3 4 6 8 9 10 8 4 2 1 0 0 1 2 3 3 4 3 1 1 1 1 0 1 1 2 3 3 3 3 2 2 2 2 1 1 1 1 0 0 0 0 0
4 7 10 12 13 13 10 6 3 2 1 0 2 2 3 3 4 2 1 0 0 0 0 0 0 1 2 3 3 3 3 3 3 3 3 2 2 1 0 0 0 0 0
6 10 14 15 17 17 14 9 5 3 2 3 5 6 4 3 3 2 1 0 0 0 0 0 0 1 1 3 3 3 3 3 3 3 3 3 2 1 0 0 0 0 0
8 12 16 18 21 22 20 15 9 6 5 6 7 7 6 4 3 2 1 0 0 0 1 1 2 2 3 5 5 4 4 3 3 3 3 3 2 1 0 0 0 0 0
10 13 17 20 23 25 24 20 16 11 8 7 6 6 5 5 6 5 2 1 1 1 2 3 3 3 5 6 6 6 5 4 3 3 3 3 2 1 1 1 0 0 0
10 12 17 21 24 27 27 26 22 16 12 9 8 6 6 6 6 5 3 3 3 4 4 5 4 4 4 5 6 6 6 4 3 3 3 3 2 1 1 1 0 0 0
8 10 15 20 24 28 31 30 25 18 15 13 11 8 6 6 6 5 5 5 5 5 6 6 6 5 4 5 6 6 6 6 5 5 4 3 1 0 1 1 0 0 0
9 11 16 22 25 29 33 31 24 19 18 17 14 10 7 5 5 5 5 6 5 5 6 7 8 8 7 6 7 7 7 8 8 7 6 4 2 1 1 1 0 0 0
12 15 21 26 29 31 33 31 25 22 22 21 18 14 9 6 3 3 4 4 4 4 6 8 9 9 8 7 8 9 8 9 10 9 7 5 4 3 2 2 1 1 1
15 18 22 27 28 30 33 33 29 26 25 24 22 19 15 9 5 3 2 2 2 4 7 9 10 10 9 8 9 10 10 10 9 8 7 6 5 4 3 3 3 3 3
16 17 18 20 23 28 34 37 34 30 28 26 24 23 18 13 9 7 5 4 4 7 9 11 11 10 9 9 10 11 11 11 8 7 6 6 6 5 4 4 4 5 5
16 14 13 14 18 26 35 39 36 33 30 27 24 22 18 12 10 10 9 8 9 11 13 12 12 11 10 8 8 8 9 8 6 6 6 6 6 6 6 6 6 6 6
20 16 12 13 18 26 34 37 36 33 30 27 25 21 15 10 9 10 12 12 12 13 14 13 12 12 10 6 5 5 6 6 5 5 6 7 7 6 6 6 6 6 6
20 18 15 15 18 24 29 33 33 31 29 28 25 21 14 11 11 12 13 15 15 15 15 15 13 12 9 6 3 3 4 4 5 5 6 8 8 7 6 5 5 4 4
17 17 15 15 19 23 24 27 29 29 27 25 23 18 14 11 12 13 14 16 17 17 17 17 15 13 10 5 2 1 2 4 4 4 6 7 8 8 7 5 3 2 2
12 13 13 14 19 21 20 20 23 25 23 21 19 16 14 13 12 11 13 15 17 18 19 18 17 16 11 6 2 0 1 3 3 3 4 6 7 7 6 5 2 2 2
8 10 12 15 18 19 17 16 19 21 20 18 18 17 17 17 13 11 11 13 15 17 17 16 17 17 13 6 1 0 2 4 4 3 3 3 4 3 3 2 1 1 1
5 8 11 14 16 18 18 18 20 20 19 19 20 21 21 19 16 14 14 15 15 14 13 12 14 16 12 6 1 2 6 8 7 4 1 1 1 1 0 0 0 0 0
4 7 10 13 15 17 19 21 21 20 18 17 20 21 20 16 15 16 17 18 16 13 11 9 10 11 9 5 1 2 8 11 10 6 2 0 0 0 0 0 0 0 0
4 5 8 11 12 14 16 17 17 15 14 14 15 16 15 12 12 14 16 17 17 15 12 9 8 7 6 4 1 1 4 9 11 9 4 1 0 0 0 0 0 0 0
5 5 6 9 10 11 11 11 10 9 9 9 9 10 10 9 9 11 13 14 15 15 13 11 9 7 6 5 3 1 1 4 7 7 4 1 0 0 0 0 0 0 0
6 6 7 9 9 9 8 7 6 5 6 6 6 6 6 7 8 10 11 11 12 13 14 14 13 11 9 7 6 3 1 2 3 3 2 0 0 0 0 0 0 0 0
9 9 9 9 9 9 7 5 4 3 4 4 5 5 5 6 6 6 6 7 9 11 13 13 14 13 10 7 7 5 3 2 1 1 0 0 0 0 0 0 0 0 0
10 11 10 10 10 9 8 5 4 3 2 2 3 5 6 6 4 2 2 3 7 9 11 11 12 12 9 7 6 5 4 2 1 0 0 0 0 0 0 0 0 0 0